| time (UTC) | temp C | wind direction | speed KPH | gust KPH | rain 1hr cm | rain 24hr cm | rain mn cm | humidity % | barometer mb |
| 20260906021203 | 25 | 305 | 0.0 | 0.0 | 0.00 | 0.00 | 0.00 | 75 | 1015.1 |
| 20260906021054 | 25 | 292 | 0.0 | 0.0 | 0.00 | 0.00 | 0.00 | 75 | 1015.1 |
| 20260906020953 | 25 | 311 | 0.0 | 0.0 | 0.00 | 0.00 | 0.00 | 75 | 1015.0 |
| 20260906020854 | 25 | 301 | 0.0 | 0.0 | 0.00 | 0.00 | 0.00 | 74 | 1015.0 |
| 20260906020752 | 25 | 288 | 0.0 | 0.0 | 0.00 | 0.00 | 0.00 | 75 | 1014.9 |
| 20260906020653 | 25 | 293 | 0.0 | 0.0 | 0.00 | 0.00 | 0.00 | 74 | 1015.0 |
| 20260906020550 | 25 | 282 | 0.0 | 0.0 | 0.00 | 0.00 | 0.00 | 74 | 1014.9 |
| 20260906020449 | 25 | 270 | 0.0 | 0.0 | 0.00 | 0.00 | 0.00 | 74 | 1014.9 |
| 20260906020352 | 25 | 284 | 0.0 | 0.0 | 0.00 | 0.00 | 0.00 | 74 | 1014.9 |
| 20260906020249 | 25 | 281 | 0.0 | 0.0 | 0.00 | 0.00 | 0.00 | 74 | 1014.8 |
| 20260906020147 | 25 | 277 | 0.0 | 0.0 | 0.00 | 0.00 | 0.00 | 74 | 1014.9 |
| 20260906020045 | 25 | 292 | 0.0 | 0.0 | 0.00 | 0.00 | 0.00 | 74 | 1015.0 |
| 20260906015944 | 25 | 306 | 0.0 | 0.0 | 0.00 | 0.00 | 0.00 | 74 | 1015.0 |
| 20260906015842 | 25 | 313 | 0.0 | 0.0 | 0.00 | 0.00 | 0.00 | 74 | 1014.9 |
| 20260906015744 | 25 | 282 | 0.0 | 0.0 | 0.00 | 0.00 | 0.00 | 75 | 1014.9 |
| 20260906015641 | 25 | 273 | 0.0 | 0.0 | 0.00 | 0.00 | 0.00 | 74 | 1014.9 |
| 20260906015538 | 25 | 274 | 0.0 | 0.0 | 0.00 | 0.00 | 0.00 | 74 | 1014.9 |
| 20260906015434 | 25 | 283 | 0.0 | 0.0 | 0.00 | 0.00 | 0.00 | 74 | 1014.9 |
| 20260906015334 | 25 | 308 | 0.0 | 0.0 | 0.00 | 0.00 | 0.00 | 74 | 1014.9 |
| 20260906015234 | 25 | 294 | 0.0 | 0.0 | 0.00 | 0.00 | 0.00 | 74 | 1015.0 |
| 20260906015130 | 25 | 312 | 0.0 | 0.0 | 0.00 | 0.00 | 0.00 | 74 | 1014.9 |
| 20260906015023 | 25 | 303 | 0.0 | 0.0 | 0.00 | 0.00 | 0.00 | 74 | 1014.9 |
| 20260906014923 | 25 | 304 | 0.0 | 0.0 | 0.00 | 0.00 | 0.00 | 74 | 1015.0 |
| 20260906014822 | 25 | 292 | 0.0 | 0.0 | 0.00 | 0.00 | 0.00 | 74 | 1014.8 |
| 20260906014722 | 25 | 313 | 0.0 | 0.0 | 0.00 | 0.00 | 0.00 | 74 | 1014.9 |
| 20260906014623 | 25 | 296 | 0.0 | 0.0 | 0.00 | 0.00 | 0.00 | 74 | 1014.9 |
| 20260906014519 | 25 | 293 | 0.0 | 0.0 | 0.00 | 0.00 | 0.00 | 74 | 1015.0 |
| 20260906014416 | 25 | 291 | 0.0 | 0.0 | 0.00 | 0.00 | 0.00 | 74 | 1014.9 |
| 20260906014318 | 25 | 307 | 0.0 | 0.0 | 0.00 | 0.00 | 0.00 | 74 | 1014.9 |
| 20260906014216 | 25 | 296 | 0.0 | 0.0 | 0.00 | 0.00 | 0.00 | 74 | 1014.9 |
| 20260906014117 | 25 | 325 | 0.0 | 0.0 | 0.00 | 0.00 | 0.00 | 74 | 1015.0 |
| 20260906014007 | 25 | 294 | 0.0 | 0.0 | 0.00 | 0.00 | 0.00 | 74 | 1014.9 |
| 20260906013907 | 25 | 296 | 0.0 | 0.0 | 0.00 | 0.00 | 0.00 | 74 | 1014.8 |
| 20260906013806 | 25 | 298 | 0.0 | 0.0 | 0.00 | 0.00 | 0.00 | 74 | 1014.9 |
| 20260906013707 | 25 | 278 | 0.0 | 0.0 | 0.00 | 0.00 | 0.00 | 73 | 1014.8 |
| 20260906013607 | 25 | 286 | 0.0 | 0.0 | 0.00 | 0.00 | 0.00 | 73 | 1014.8 |
| 20260906013500 | 25 | 317 | 0.0 | 0.0 | 0.00 | 0.00 | 0.00 | 73 | 1014.9 |
| 20260906013400 | 25 | 300 | 0.0 | 0.0 | 0.00 | 0.00 | 0.00 | 73 | 1014.9 |
| 20260906013300 | 25 | 287 | 0.0 | 0.0 | 0.00 | 0.00 | 0.00 | 73 | 1014.9 |
| 20260906013202 | 25 | 309 | 0.0 | 0.0 | 0.00 | 0.00 | 0.00 | 73 | 1014.8 |
| 20260906013100 | 25 | 309 | 0.0 | 0.0 | 0.00 | 0.00 | 0.00 | 73 | 1014.8 |
| 20260906013002 | 25 | 304 | 0.0 | 0.0 | 0.00 | 0.00 | 0.00 | 73 | 1014.9 |
| 20260906012858 | 25 | 303 | 0.0 | 0.0 | 0.00 | 0.00 | 0.00 | 73 | 1014.9 |
| 20260906012758 | 25 | 292 | 0.0 | 0.0 | 0.00 | 0.00 | 0.00 | 73 | 1014.9 |
| 20260906012656 | 25 | 298 | 0.0 | 0.0 | 0.00 | 0.00 | 0.00 | 73 | 1014.9 |
| 20260906012553 | 25 | 298 | 0.0 | 0.0 | 0.00 | 0.00 | 0.00 | 73 | 1014.8 |
| 20260906012443 | 25 | 281 | 0.0 | 0.0 | 0.00 | 0.00 | 0.00 | 72 | 1014.9 |
| 20260906012343 | 25 | 288 | 0.0 | 0.0 | 0.00 | 0.00 | 0.00 | 72 | 1014.9 |
| 20260906012243 | 25 | 303 | 0.0 | 0.0 | 0.00 | 0.00 | 0.00 | 72 | 1014.9 |
| 20260906012142 | 25 | 270 | 0.0 | 0.0 | 0.00 | 0.00 | 0.00 | 72 | 1014.8 |
| 20260906012043 | 25 | 271 | 0.0 | 0.0 | 0.00 | 0.00 | 0.00 | 71 | 1014.7 |
| 20260906011939 | 25 | 288 | 0.0 | 0.0 | 0.00 | 0.00 | 0.00 | 71 | 1014.8 |
| 20260906011839 | 25 | 288 | 0.0 | 0.0 | 0.00 | 0.00 | 0.00 | 71 | 1014.8 |
| 20260906011738 | 25 | 288 | 0.0 | 0.0 | 0.00 | 0.00 | 0.00 | 71 | 1014.7 |
| 20260906011638 | 25 | 286 | 0.0 | 0.0 | 0.00 | 0.00 | 0.00 | 71 | 1014.8 |
| 20260906011535 | 25 | 292 | 0.0 | 0.0 | 0.00 | 0.00 | 0.00 | 71 | 1014.7 |
| 20260906011432 | 25 | 282 | 0.0 | 0.0 | 0.00 | 0.00 | 0.00 | 71 | 1014.7 |
| 20260906011332 | 25 | 285 | 0.0 | 0.0 | 0.00 | 0.00 | 0.00 | 71 | 1014.8 |
| 20260906011233 | 25 | 300 | 0.0 | 0.0 | 0.00 | 0.00 | 0.00 | 71 | 1014.8 |
| 20260906011131 | 25 | 300 | 0.0 | 0.0 | 0.00 | 0.00 | 0.00 | 70 | 1014.7 |
| 20260906011029 | 25 | 288 | 0.0 | 0.0 | 0.00 | 0.00 | 0.00 | 70 | 1014.7 |
| 20260906010924 | 25 | 286 | 0.0 | 0.0 | 0.00 | 0.00 | 0.00 | 70 | 1014.7 |
| 20260906010822 | 25 | 289 | 0.0 | 0.0 | 0.00 | 0.00 | 0.00 | 70 | 1014.7 |
| 20260906010720 | 25 | 282 | 0.0 | 0.0 | 0.00 | 0.00 | 0.00 | 70 | 1014.7 |
| 20260906010622 | 25 | 303 | 0.0 | 0.0 | 0.00 | 0.00 | 0.00 | 70 | 1014.7 |
| 20260906010519 | 25 | 304 | 0.0 | 0.0 | 0.00 | 0.00 | 0.00 | 70 | 1014.6 |
| 20260906010420 | 25 | 319 | 0.0 | 0.0 | 0.00 | 0.00 | 0.00 | 70 | 1014.6 |
| 20260906010316 | 25 | 320 | 0.0 | 0.0 | 0.00 | 0.00 | 0.00 | 71 | 1014.6 |
| 20260906010216 | 25 | 317 | 0.0 | 0.0 | 0.00 | 0.00 | 0.00 | 71 | 1014.5 |
| 20260906010115 | 25 | 293 | 0.0 | 0.0 | 0.00 | 0.00 | 0.00 | 71 | 1014.6 |
| 20260906010012 | 25 | 293 | 0.0 | 0.0 | 0.00 | 0.00 | 0.00 | 71 | 1014.5 |
| 20260906005908 | 25 | 292 | 0.0 | 0.0 | 0.00 | 0.00 | 0.00 | 71 | 1014.6 |
| 20260906005807 | 25 | 259 | 0.0 | 0.0 | 0.00 | 0.00 | 0.00 | 72 | 1014.5 |
| 20260906005707 | 25 | 282 | 0.0 | 0.0 | 0.00 | 0.00 | 0.00 | 72 | 1014.5 |
| 20260906005606 | 25 | 282 | 0.0 | 0.0 | 0.00 | 0.00 | 0.00 | 72 | 1014.5 |
| 20260906005507 | 25 | 282 | 0.0 | 0.0 | 0.00 | 0.00 | 0.00 | 72 | 1014.5 |
| 20260906005401 | 25 | 277 | 0.0 | 0.0 | 0.00 | 0.00 | 0.00 | 72 | 1014.4 |
| 20260906005301 | 25 | 271 | 0.0 | 0.0 | 0.00 | 0.00 | 0.00 | 72 | 1014.5 |
| 20260906005201 | 25 | 288 | 0.0 | 0.0 | 0.00 | 0.00 | 0.00 | 72 | 1014.5 |
| 20260906005059 | 25 | 289 | 0.0 | 0.0 | 0.00 | 0.00 | 0.00 | 72 | 1014.5 |
| 20260906004956 | 25 | 287 | 0.0 | 0.0 | 0.00 | 0.00 | 0.00 | 72 | 1014.5 |
| 20260906004853 | 25 | 300 | 0.0 | 0.0 | 0.00 | 0.00 | 0.00 | 72 | 1014.5 |
| 20260906004750 | 25 | 303 | 0.0 | 0.0 | 0.00 | 0.00 | 0.00 | 72 | 1014.5 |
| 20260906004651 | 25 | 302 | 0.0 | 0.0 | 0.00 | 0.00 | 0.00 | 72 | 1014.5 |
| 20260906004551 | 25 | 302 | 0.0 | 0.0 | 0.00 | 0.00 | 0.00 | 72 | 1014.5 |
| 20260906004451 | 25 | 304 | 0.0 | 0.0 | 0.00 | 0.00 | 0.00 | 72 | 1014.5 |
| 20260906004347 | 25 | 297 | 0.0 | 0.0 | 0.00 | 0.00 | 0.00 | 72 | 1014.5 |
| 20260906004247 | 25 | 298 | 0.0 | 0.0 | 0.00 | 0.00 | 0.00 | 72 | 1014.4 |
| 20260906004146 | 25 | 296 | 0.0 | 0.0 | 0.00 | 0.00 | 0.00 | 72 | 1014.4 |
| 20260906004047 | 25 | 292 | 0.0 | 0.0 | 0.00 | 0.00 | 0.00 | 72 | 1014.4 |
| 20260906003944 | 25 | 294 | 0.0 | 0.0 | 0.00 | 0.00 | 0.00 | 72 | 1014.4 |
| 20260906003838 | 25 | 291 | 0.0 | 0.0 | 0.00 | 0.00 | 0.00 | 72 | 1014.4 |
| 20260906003738 | 25 | 306 | 0.0 | 0.0 | 0.00 | 0.00 | 0.00 | 72 | 1014.4 |
| 20260906003637 | 25 | 304 | 0.0 | 0.0 | 0.00 | 0.00 | 0.00 | 72 | 1014.4 |
| 20260906003537 | 25 | 305 | 0.0 | 0.0 | 0.00 | 0.00 | 0.00 | 73 | 1014.4 |
| 20260906003435 | 25 | 295 | 0.0 | 0.0 | 0.00 | 0.00 | 0.00 | 73 | 1014.4 |
| 20260906003336 | 25 | 307 | 0.0 | 0.0 | 0.00 | 0.00 | 0.00 | 73 | 1014.4 |
| 20260906003232 | 25 | 281 | 0.0 | 0.0 | 0.00 | 0.00 | 0.00 | 73 | 1014.3 |
| 20260906003132 | 25 | 281 | 0.0 | 0.0 | 0.00 | 0.00 | 0.00 | 73 | 1014.4 |
| 20260906003031 | 25 | 280 | 0.0 | 0.0 | 0.00 | 0.00 | 0.00 | 73 | 1014.4 |
| 20260906002929 | 25 | 275 | 0.0 | 0.0 | 0.00 | 0.00 | 0.00 | 73 | 1014.4 |
| 20260906002828 | 25 | 271 | 0.0 | 0.0 | 0.00 | 0.00 | 0.00 | 74 | 1014.3 |
| 20260906002727 | 25 | 272 | 0.0 | 0.0 | 0.00 | 0.00 | 0.00 | 74 | 1014.3 |
| 20260906002627 | 25 | 272 | 0.0 | 0.0 | 0.00 | 0.00 | 0.00 | 74 | 1014.3 |
| 20260906002525 | 25 | 272 | 0.0 | 0.0 | 0.00 | 0.00 | 0.00 | 74 | 1014.3 |
| 20260906002423 | 25 | 275 | 0.0 | 0.0 | 0.00 | 0.00 | 0.00 | 74 | 1014.2 |
| 20260906002314 | 25 | 274 | 0.0 | 0.0 | 0.00 | 0.00 | 0.00 | 74 | 1014.2 |
| 20260906002213 | 25 | 275 | 0.0 | 0.0 | 0.00 | 0.00 | 0.00 | 74 | 1014.1 |
| 20260906002113 | 25 | 275 | 0.0 | 0.0 | 0.00 | 0.00 | 0.00 | 73 | 1014.1 |
| 20260906002012 | 25 | 274 | 0.0 | 0.0 | 0.00 | 0.00 | 0.00 | 73 | 1014.1 |
| 20260906001912 | 25 | 275 | 0.0 | 0.0 | 0.00 | 0.00 | 0.00 | 74 | 1013.9 |
| 20260906001807 | 25 | 275 | 0.0 | 0.0 | 0.00 | 0.00 | 0.00 | 73 | 1014.0 |
| 20260906001706 | 25 | 275 | 0.0 | 0.0 | 0.00 | 0.00 | 0.00 | 73 | 1013.9 |
| 20260906001606 | 25 | 276 | 0.0 | 0.0 | 0.00 | 0.00 | 0.00 | 73 | 1014.0 |
| 20260906001506 | 25 | 271 | 0.0 | 0.0 | 0.00 | 0.00 | 0.00 | 74 | 1014.0 |
| 20260906001406 | 25 | 271 | 0.0 | 0.0 | 0.00 | 0.00 | 0.00 | 73 | 1014.0 |
| 20260906001305 | 25 | 276 | 0.0 | 0.0 | 0.00 | 0.00 | 0.00 | 74 | 1013.9 |
| 20260906001204 | 25 | 277 | 0.0 | 0.0 | 0.00 | 0.00 | 0.00 | 74 | 1013.9 |
| 20260906001104 | 25 | 277 | 0.0 | 0.0 | 0.00 | 0.00 | 0.00 | 74 | 1014.0 |
| 20260906001003 | 25 | 277 | 0.0 | 0.0 | 0.00 | 0.00 | 0.00 | 73 | 1013.9 |
| 20260906000901 | 25 | 276 | 0.0 | 0.0 | 0.00 | 0.00 | 0.00 | 74 | 1013.9 |
| 20260906000754 | 25 | 270 | 0.0 | 0.0 | 0.00 | 0.00 | 0.00 | 74 | 1013.9 |
| 20260906000655 | 25 | 270 | 0.0 | 0.0 | 0.00 | 0.00 | 0.00 | 74 | 1013.9 |
| 20260906000554 | 25 | 270 | 0.0 | 0.0 | 0.00 | 0.00 | 0.00 | 74 | 1013.9 |
| 20260906000455 | 25 | 267 | 0.0 | 0.0 | 0.00 | 0.00 | 0.00 | 74 | 1013.9 |
| 20260906000350 | 25 | 267 | 0.0 | 0.0 | 0.00 | 0.00 | 0.00 | 74 | 1014.0 |
| 20260906000249 | 25 | 265 | 0.0 | 0.0 | 0.00 | 0.00 | 0.00 | 74 | 1014.0 |
| 20260906000148 | 25 | 268 | 0.0 | 0.0 | 0.00 | 0.00 | 0.00 | 74 | 1013.9 |
| 20260906000048 | 25 | 283 | 0.0 | 0.0 | 0.00 | 0.00 | 0.00 | 74 | 1013.9 |
| 20260905235947 | 25 | 296 | 0.0 | 0.0 | 0.00 | 0.00 | 0.00 | 75 | 1013.9 |
| 20260905235846 | 25 | 270 | 0.0 | 0.0 | 0.00 | 0.00 | 0.00 | 74 | 1013.8 |
| 20260905235745 | 25 | 301 | 0.0 | 0.0 | 0.00 | 0.00 | 0.00 | 74 | 1013.8 |
| 20260905235642 | 25 | 278 | 0.0 | 0.0 | 0.00 | 0.00 | 0.00 | 75 | 1013.8 |
| 20260905235543 | 25 | 267 | 0.0 | 0.0 | 0.00 | 0.00 | 0.00 | 74 | 1013.8 |
| 20260905235441 | 25 | 269 | 0.0 | 0.0 | 0.00 | 0.00 | 0.00 | 74 | 1013.8 |
| 20260905235339 | 25 | 273 | 0.0 | 0.0 | 0.00 | 0.00 | 0.00 | 74 | 1013.7 |
| 20260905235231 | 25 | 271 | 0.0 | 0.0 | 0.00 | 0.00 | 0.00 | 74 | 1013.7 |
| 20260905235128 | 25 | 271 | 0.0 | 0.0 | 0.00 | 0.00 | 0.00 | 75 | 1013.5 |
| 20260905235028 | 25 | 280 | 0.0 | 0.0 | 0.00 | 0.00 | 0.00 | 74 | 1013.7 |
| 20260905234928 | 25 | 279 | 0.0 | 0.0 | 0.00 | 0.00 | 0.00 | 75 | 1013.7 |
| 20260905234829 | 25 | 278 | 0.0 | 0.0 | 0.00 | 0.00 | 0.00 | 74 | 1013.7 |
| 20260905234728 | 25 | 279 | 0.0 | 0.0 | 0.00 | 0.00 | 0.00 | 75 | 1013.7 |
| 20260905234626 | 25 | 302 | 0.0 | 0.0 | 0.00 | 0.00 | 0.00 | 75 | 1013.8 |
| 20260905234524 | 25 | 302 | 0.0 | 0.0 | 0.00 | 0.00 | 0.00 | 74 | 1013.8 |
| 20260905234426 | 25 | 302 | 0.0 | 0.0 | 0.00 | 0.00 | 0.00 | 74 | 1013.8 |
| 20260905234323 | 25 | 302 | 0.0 | 0.0 | 0.00 | 0.00 | 0.00 | 75 | 1013.7 |
| 20260905234219 | 25 | 234 | 0.0 | 0.0 | 0.00 | 0.00 | 0.00 | 74 | 1013.7 |
| 20260905234119 | 25 | 234 | 0.0 | 0.0 | 0.00 | 0.00 | 0.00 | 74 | 1013.8 |
| 20260905234017 | 25 | 234 | 0.0 | 0.0 | 0.00 | 0.00 | 0.00 | 74 | 1013.7 |
| 20260905233920 | 25 | 234 | 0.0 | 0.0 | 0.00 | 0.00 | 0.00 | 74 | 1013.7 |
| 20260905233817 | 25 | 234 | 0.0 | 0.0 | 0.00 | 0.00 | 0.00 | 74 | 1013.7 |
| 20260905233706 | 25 | 225 | 0.0 | 0.0 | 0.00 | 0.00 | 0.00 | 74 | 1013.8 |
| 20260905233605 | 25 | 225 | 0.0 | 0.0 | 0.00 | 0.00 | 0.00 | 74 | 1013.8 |
| 20260905233506 | 25 | 225 | 0.0 | 0.0 | 0.00 | 0.00 | 0.00 | 74 | 1013.8 |
| 20260905233406 | 25 | 225 | 0.0 | 0.0 | 0.00 | 0.00 | 0.00 | 74 | 1013.8 |
| 20260905233307 | 25 | 205 | 0.0 | 0.0 | 0.00 | 0.00 | 0.00 | 73 | 1013.7 |
| 20260905233202 | 25 | 193 | 0.0 | 0.0 | 0.00 | 0.00 | 0.00 | 73 | 1013.7 |
| 20260905233102 | 26 | 193 | 0.0 | 0.0 | 0.00 | 0.00 | 0.00 | 73 | 1013.8 |
| 20260905233003 | 26 | 193 | 0.0 | 0.0 | 0.00 | 0.00 | 0.00 | 73 | 1013.7 |
| 20260905232903 | 26 | 193 | 0.0 | 0.0 | 0.00 | 0.00 | 0.00 | 73 | 1013.7 |
| 20260905232801 | 26 | 193 | 0.0 | 0.0 | 0.00 | 0.00 | 0.00 | 73 | 1013.8 |
| 20260905232658 | 26 | 193 | 0.0 | 0.0 | 0.00 | 0.00 | 0.00 | 73 | 1013.7 |
| 20260905232558 | 26 | 193 | 0.0 | 0.0 | 0.00 | 0.00 | 0.00 | 73 | 1013.7 |
| 20260905232457 | 26 | 193 | 0.0 | 0.0 | 0.00 | 0.00 | 0.00 | 73 | 1013.7 |
| 20260905232357 | 26 | 193 | 0.0 | 0.0 | 0.00 | 0.00 | 0.00 | 73 | 1013.8 |
| 20260905232255 | 26 | 193 | 0.0 | 0.0 | 0.00 | 0.00 | 0.00 | 73 | 1013.7 |
| 20260905232148 | 26 | 193 | 0.0 | 0.0 | 0.00 | 0.00 | 0.00 | 73 | 1013.8 |
| 20260905232049 | 26 | 193 | 0.0 | 0.0 | 0.00 | 0.00 | 0.00 | 73 | 1013.8 |
| 20260905231946 | 26 | 193 | 0.0 | 0.0 | 0.00 | 0.00 | 0.00 | 73 | 1013.7 |
| 20260905231847 | 26 | 193 | 0.0 | 0.0 | 0.00 | 0.00 | 0.00 | 73 | 1013.7 |
| 20260905231745 | 26 | 193 | 0.0 | 0.0 | 0.00 | 0.00 | 0.00 | 73 | 1013.8 |
| 20260905231644 | 26 | 194 | 0.0 | 0.0 | 0.00 | 0.00 | 0.00 | 72 | 1013.7 |
| 20260905231543 | 26 | 194 | 0.0 | 0.0 | 0.00 | 0.00 | 0.00 | 72 | 1013.7 |
| 20260905231442 | 26 | 194 | 0.0 | 0.0 | 0.00 | 0.00 | 0.00 | 72 | 1013.7 |
| 20260905231342 | 26 | 194 | 0.0 | 0.0 | 0.00 | 0.00 | 0.00 | 72 | 1013.7 |
| 20260905231239 | 26 | 194 | 0.0 | 0.0 | 0.00 | 0.00 | 0.00 | 72 | 1013.7 |
| 20260905231139 | 26 | 194 | 0.0 | 0.0 | 0.00 | 0.00 | 0.00 | 72 | 1013.7 |
| 20260905231037 | 26 | 194 | 0.0 | 0.0 | 0.00 | 0.00 | 0.00 | 72 | 1013.4 |
| 20260905230936 | 26 | 194 | 0.0 | 0.0 | 0.00 | 0.00 | 0.00 | 72 | 1013.4 |
| 20260905230836 | 26 | 194 | 0.0 | 0.0 | 0.00 | 0.00 | 0.00 | 71 | 1013.4 |
| 20260905230732 | 26 | 194 | 0.0 | 0.0 | 0.00 | 0.00 | 0.00 | 72 | 1013.5 |
| 20260905230626 | 26 | 194 | 0.0 | 0.0 | 0.00 | 0.00 | 0.00 | 71 | 1013.5 |
| 20260905230527 | 26 | 194 | 0.0 | 0.0 | 0.00 | 0.00 | 0.00 | 71 | 1013.4 |
| 20260905230425 | 26 | 194 | 0.0 | 0.0 | 0.00 | 0.00 | 0.00 | 71 | 1013.5 |
| 20260905230324 | 26 | 194 | 0.0 | 0.0 | 0.00 | 0.00 | 0.00 | 71 | 1013.5 |
| 20260905230223 | 26 | 194 | 0.0 | 0.0 | 0.00 | 0.00 | 0.00 | 71 | 1013.5 |
| 20260905230117 | 26 | 194 | 0.0 | 0.0 | 0.00 | 0.00 | 0.00 | 71 | 1013.5 |
| 20260905230017 | 26 | 194 | 0.0 | 0.0 | 0.00 | 0.00 | 0.00 | 71 | 1013.7 |
| 20260905225917 | 26 | 237 | 0.0 | 0.0 | 0.00 | 0.00 | 0.00 | 71 | 1013.7 |
| 20260905225817 | 26 | 238 | 0.0 | 0.0 | 0.00 | 0.00 | 0.00 | 71 | 1013.5 |
| 20260905225717 | 26 | 238 | 0.0 | 0.0 | 0.00 | 0.00 | 0.00 | 71 | 1013.7 |
| 20260905225616 | 26 | 237 | 0.0 | 0.0 | 0.00 | 0.00 | 0.00 | 71 | 1013.5 |
| 20260905225515 | 26 | 237 | 0.0 | 0.0 | 0.00 | 0.00 | 0.00 | 71 | 1013.5 |
| 20260905225414 | 26 | 237 | 0.0 | 0.0 | 0.00 | 0.00 | 0.00 | 71 | 1013.5 |
| 20260905225313 | 26 | 237 | 0.0 | 0.0 | 0.00 | 0.00 | 0.00 | 71 | 1013.5 |
| 20260905225211 | 26 | 237 | 0.0 | 0.0 | 0.00 | 0.00 | 0.00 | 70 | 1013.7 |
| 20260905225103 | 26 | 237 | 0.0 | 0.0 | 0.00 | 0.00 | 0.00 | 70 | 1013.5 |
| 20260905225001 | 26 | 237 | 0.0 | 0.0 | 0.00 | 0.00 | 0.00 | 70 | 1013.5 |
| 20260905224900 | 26 | 237 | 0.0 | 0.0 | 0.00 | 0.00 | 0.00 | 70 | 1013.5 |
| 20260905224801 | 26 | 237 | 0.0 | 0.0 | 0.00 | 0.00 | 0.00 | 70 | 1013.5 |
| 20260905224701 | 26 | 237 | 0.0 | 0.0 | 0.00 | 0.00 | 0.00 | 70 | 1013.5 |
| 20260905224557 | 26 | 237 | 0.0 | 0.0 | 0.00 | 0.00 | 0.00 | 70 | 1013.5 |
| 20260905224457 | 26 | 237 | 0.0 | 0.0 | 0.00 | 0.00 | 0.00 | 69 | 1013.7 |
| 20260905224357 | 26 | 237 | 0.0 | 0.0 | 0.00 | 0.00 | 0.00 | 70 | 1013.7 |
| 20260905224257 | 27 | 226 | 0.0 | 0.0 | 0.00 | 0.00 | 0.00 | 71 | 1013.8 |
| 20260905224154 | 27 | 226 | 0.0 | 0.0 | 0.00 | 0.00 | 0.00 | 70 | 1013.7 |
| 20260905224055 | 27 | 226 | 0.0 | 0.0 | 0.00 | 0.00 | 0.00 | 69 | 1013.7 |
| 20260905223954 | 27 | 226 | 0.0 | 0.0 | 0.00 | 0.00 | 0.00 | 70 | 1013.7 |
| 20260905223850 | 27 | 226 | 0.0 | 0.0 | 0.00 | 0.00 | 0.00 | 69 | 1013.8 |
| 20260905223751 | 27 | 225 | 0.0 | 0.0 | 0.00 | 0.00 | 0.00 | 68 | 1013.8 |
| 20260905223650 | 27 | 225 | 0.0 | 0.0 | 0.00 | 0.00 | 0.00 | 69 | 1013.8 |
| 20260905223543 | 27 | 218 | 0.0 | 0.0 | 0.00 | 0.00 | 0.00 | 69 | 1013.8 |
| 20260905223442 | 27 | 196 | 0.0 | 0.0 | 0.00 | 0.00 | 0.00 | 69 | 1013.8 |
| 20260905223342 | 27 | 196 | 0.0 | 0.0 | 0.00 | 0.00 | 0.00 | 69 | 1013.8 |
| 20260905223241 | 27 | 200 | 0.0 | 0.0 | 0.00 | 0.00 | 0.00 | 69 | 1013.8 |
| 20260905223139 | 27 | 201 | 0.0 | 1.6 | 0.00 | 0.00 | 0.00 | 69 | 1013.7 |
| 20260905223035 | 27 | 202 | 0.0 | 4.8 | 0.00 | 0.00 | 0.00 | 69 | 1013.8 |
| 20260905222937 | 27 | 204 | 0.0 | 4.8 | 0.00 | 0.00 | 0.00 | 69 | 1013.8 |
| 20260905222836 | 27 | 204 | 0.0 | 4.8 | 0.00 | 0.00 | 0.00 | 69 | 1013.8 |
| 20260905222735 | 27 | 204 | 0.0 | 4.8 | 0.00 | 0.00 | 0.00 | 68 | 1013.7 |
| 20260905222633 | 27 | 204 | 0.0 | 4.8 | 0.00 | 0.00 | 0.00 | 68 | 1013.7 |
| 20260905222530 | 27 | 184 | 0.0 | 4.8 | 0.00 | 0.00 | 0.00 | 68 | 1013.5 |
| 20260905222430 | 27 | 242 | 0.0 | 4.8 | 0.00 | 0.00 | 0.00 | 68 | 1013.8 |
| 20260905222330 | 27 | 242 | 1.6 | 4.8 | 0.00 | 0.00 | 0.00 | 67 | 1013.7 |
| 20260905222228 | 27 | 242 | 1.6 | 6.4 | 0.00 | 0.00 | 0.00 | 68 | 1013.7 |
| 20260905222126 | 27 | 273 | 1.6 | 6.4 | 0.00 | 0.00 | 0.00 | 68 | 1013.7 |
| 20260905222018 | 27 | 211 | 1.6 | 6.4 | 0.00 | 0.00 | 0.00 | 68 | 1013.7 |
| 20260905221917 | 27 | 211 | 1.6 | 6.4 | 0.00 | 0.00 | 0.00 | 68 | 1013.7 |
| 20260905221817 | 27 | 211 | 1.6 | 6.4 | 0.00 | 0.00 | 0.00 | 68 | 1013.7 |
| 20260905221716 | 27 | 241 | 1.6 | 9.7 | 0.00 | 0.00 | 0.00 | 68 | 1013.5 |
| 20260905221616 | 27 | 242 | 1.6 | 9.7 | 0.00 | 0.00 | 0.00 | 68 | 1013.7 |
| 20260905221511 | 27 | 241 | 1.6 | 9.7 | 0.00 | 0.00 | 0.00 | 67 | 1013.7 |
| 20260905221413 | 27 | 242 | 1.6 | 9.7 | 0.00 | 0.00 | 0.00 | 66 | 1013.7 |
| 20260905221312 | 27 | 234 | 1.6 | 9.7 | 0.00 | 0.00 | 0.00 | 68 | 1013.7 |
| 20260905221213 | 27 | 175 | 1.6 | 9.7 | 0.00 | 0.00 | 0.00 | 67 | 1013.5 |
| 20260905221110 | 27 | 175 | 1.6 | 9.7 | 0.00 | 0.00 | 0.00 | 68 | 1013.5 |
| 20260905221006 | 28 | 204 | 1.6 | 9.7 | 0.00 | 0.00 | 0.00 | 67 | 1013.5 |
| 20260905220907 | 28 | 204 | 1.6 | 9.7 | 0.00 | 0.00 | 0.00 | 68 | 1013.5 |
| 20260905220806 | 28 | 205 | 1.6 | 9.7 | 0.00 | 0.00 | 0.00 | 66 | 1013.7 |
| 20260905220706 | 28 | 290 | 1.6 | 6.4 | 0.00 | 0.00 | 0.00 | 66 | 1013.5 |
| 20260905220604 | 28 | 290 | 1.6 | 6.4 | 0.00 | 0.00 | 0.00 | 66 | 1013.5 |
| 20260905220455 | 28 | 189 | 1.6 | 4.8 | 0.00 | 0.00 | 0.00 | 67 | 1013.7 |
| 20260905220355 | 28 | 189 | 1.6 | 4.8 | 0.00 | 0.00 | 0.00 | 67 | 1013.7 |
| 20260905220253 | 28 | 189 | 1.6 | 4.8 | 0.00 | 0.00 | 0.00 | 67 | 1013.7 |
| 20260905220154 | 28 | 189 | 1.6 | 4.8 | 0.00 | 0.00 | 0.00 | 67 | 1013.7 |
| 20260905220055 | 28 | 189 | 1.6 | 4.8 | 0.00 | 0.00 | 0.00 | 66 | 1013.7 |
| 20260905215948 | 28 | 193 | 1.6 | 4.8 | 0.00 | 0.00 | 0.00 | 66 | 1013.8 |
| 20260905215848 | 28 | 301 | 1.6 | 4.8 | 0.00 | 0.00 | 0.00 | 66 | 1013.8 |
| 20260905215748 | 28 | 301 | 1.6 | 4.8 | 0.00 | 0.00 | 0.00 | 66 | 1013.8 |
| 20260905215648 | 28 | 300 | 1.6 | 4.8 | 0.00 | 0.00 | 0.00 | 65 | 1013.8 |
| 20260905215549 | 28 | 298 | 1.6 | 4.8 | 0.00 | 0.00 | 0.00 | 66 | 1013.8 |
| 20260905215446 | 28 | 346 | 1.6 | 4.8 | 0.00 | 0.00 | 0.00 | 65 | 1013.9 |
| 20260905215347 | 28 | 346 | 1.6 | 4.8 | 0.00 | 0.00 | 0.00 | 65 | 1013.8 |
| 20260905215246 | 28 | 304 | 1.6 | 4.8 | 0.00 | 0.00 | 0.00 | 65 | 1013.8 |
| 20260905215145 | 28 | 182 | 1.6 | 3.2 | 0.00 | 0.00 | 0.00 | 66 | 1013.9 |
| 20260905215043 | 28 | 181 | 1.6 | 4.8 | 0.00 | 0.00 | 0.00 | 66 | 1013.9 |
| 20260905214935 | 28 | 248 | 1.6 | 6.4 | 0.00 | 0.00 | 0.00 | 66 | 1014.0 |
| 20260905214833 | 28 | 249 | 1.6 | 6.4 | 0.00 | 0.00 | 0.00 | 67 | 1014.0 |
| 20260905214732 | 28 | 247 | 1.6 | 6.4 | 0.00 | 0.00 | 0.00 | 66 | 1014.0 |
| 20260905214631 | 28 | 247 | 1.6 | 6.4 | 0.00 | 0.00 | 0.00 | 66 | 1014.0 |
| 20260905214533 | 28 | 248 | 1.6 | 6.4 | 0.00 | 0.00 | 0.00 | 67 | 1014.0 |
| 20260905214428 | 28 | 236 | 1.6 | 6.4 | 0.00 | 0.00 | 0.00 | 67 | 1014.0 |
| 20260905214329 | 28 | 238 | 1.6 | 6.4 | 0.00 | 0.00 | 0.00 | 65 | 1014.0 |
| 20260905214229 | 28 | 239 | 1.6 | 6.4 | 0.00 | 0.00 | 0.00 | 65 | 1014.0 |
| 20260905214128 | 28 | 234 | 1.6 | 6.4 | 0.00 | 0.00 | 0.00 | 65 | 1014.0 |
| 20260905214027 | 28 | 81 | 1.6 | 4.8 | 0.00 | 0.00 | 0.00 | 66 | 1014.1 |
| 20260905213923 | 28 | 197 | 1.6 | 6.4 | 0.00 | 0.00 | 0.00 | 65 | 1014.1 |
| 20260905213819 | 28 | 254 | 1.6 | 6.4 | 0.00 | 0.00 | 0.00 | 66 | 1014.1 |
| 20260905213721 | 28 | 155 | 1.6 | 6.4 | 0.00 | 0.00 | 0.00 | 66 | 1014.1 |
| 20260905213621 | 28 | 159 | 1.6 | 6.4 | 0.00 | 0.00 | 0.00 | 65 | 1014.1 |
| 20260905213521 | 28 | 150 | 1.6 | 6.4 | 0.00 | 0.00 | 0.00 | 65 | 1014.0 |
| 20260905213414 | 28 | 99 | 1.6 | 6.4 | 0.00 | 0.00 | 0.00 | 67 | 1014.1 |
| 20260905213312 | 28 | 119 | 3.2 | 6.4 | 0.00 | 0.00 | 0.00 | 67 | 1014.1 |
| 20260905213212 | 28 | 116 | 3.2 | 6.4 | 0.00 | 0.00 | 0.00 | 65 | 1014.0 |
| 20260905213113 | 28 | 151 | 3.2 | 6.4 | 0.00 | 0.00 | 0.00 | 65 | 1014.0 |
| 20260905213011 | 28 | 148 | 3.2 | 6.4 | 0.00 | 0.00 | 0.00 | 66 | 1014.0 |
| 20260905212904 | 28 | 193 | 3.2 | 6.4 | 0.00 | 0.00 | 0.00 | 66 | 1014.1 |
| 20260905212804 | 27 | 151 | 3.2 | 6.4 | 0.00 | 0.00 | 0.00 | 67 | 1014.0 |
| 20260905212704 | 27 | 112 | 1.6 | 6.4 | 0.00 | 0.00 | 0.00 | 66 | 1014.0 |
| 20260905212604 | 27 | 126 | 1.6 | 6.4 | 0.00 | 0.00 | 0.00 | 67 | 1014.1 |
| 20260905212505 | 27 | 333 | 1.6 | 6.4 | 0.00 | 0.00 | 0.00 | 69 | 1014.0 |
| 20260905212400 | 27 | 320 | 1.6 | 6.4 | 0.00 | 0.00 | 0.00 | 67 | 1014.0 |
| 20260905212301 | 27 | 316 | 1.6 | 6.4 | 0.00 | 0.00 | 0.00 | 66 | 1013.9 |
| 20260905212200 | 27 | 155 | 1.6 | 6.4 | 0.00 | 0.00 | 0.00 | 69 | 1014.0 |
| 20260905212059 | 27 | 165 | 1.6 | 6.4 | 0.00 | 0.00 | 0.00 | 70 | 1014.0 |
| 20260905211959 | 27 | 165 | 1.6 | 6.4 | 0.00 | 0.00 | 0.00 | 69 | 1013.8 |
| 20260905211849 | 27 | 162 | 3.2 | 8.0 | 0.00 | 0.00 | 0.00 | 68 | 1013.9 |
| 20260905211749 | 27 | 314 | 3.2 | 8.0 | 0.00 | 0.00 | 0.00 | 68 | 1013.9 |
| 20260905211649 | 27 | 30 | 3.2 | 8.0 | 0.00 | 0.00 | 0.00 | 69 | 1013.8 |
| 20260905211548 | 27 | 312 | 3.2 | 8.0 | 0.00 | 0.00 | 0.00 | 70 | 1013.8 |
| 20260905211448 | 27 | 304 | 3.2 | 8.0 | 0.00 | 0.00 | 0.00 | 70 | 1013.8 |
| 20260905211346 | 27 | 304 | 3.2 | 16.1 | 0.00 | 0.00 | 0.00 | 70 | 1013.8 |
| 20260905211245 | 27 | 298 | 3.2 | 16.1 | 0.00 | 0.00 | 0.00 | 69 | 1013.8 |
| 20260905211144 | 27 | 271 | 3.2 | 16.1 | 0.00 | 0.00 | 0.00 | 71 | 1013.8 |
| 20260905211045 | 27 | 232 | 3.2 | 16.1 | 0.00 | 0.00 | 0.00 | 70 | 1013.9 |
| 20260905210943 | 27 | 169 | 3.2 | 16.1 | 0.00 | 0.00 | 0.00 | 69 | 1013.9 |
| 20260905210838 | 27 | 191 | 3.2 | 16.1 | 0.00 | 0.00 | 0.00 | 69 | 1013.7 |
| 20260905210739 | 26 | 188 | 3.2 | 16.1 | 0.00 | 0.00 | 0.00 | 70 | 1013.7 |
| 20260905210637 | 26 | 260 | 3.2 | 16.1 | 0.00 | 0.00 | 0.00 | 70 | 1013.7 |
| 20260905210538 | 26 | 186 | 3.2 | 16.1 | 0.00 | 0.00 | 0.00 | 70 | 1013.7 |
| 20260905210437 | 26 | 288 | 3.2 | 12.9 | 0.00 | 0.00 | 0.00 | 70 | 1013.7 |
| 20260905210329 | 26 | 0 | 3.2 | 6.4 | 0.00 | 0.00 | 0.00 | 69 | 1013.7 |
| 20260905210226 | 26 | 323 | 3.2 | 6.4 | 0.00 | 0.00 | 0.00 | 69 | 1013.8 |
| 20260905210126 | 26 | 271 | 3.2 | 9.7 | 0.00 | 0.00 | 0.00 | 69 | 1013.7 |
| 20260905210026 | 26 | 317 | 3.2 | 9.7 | 0.00 | 0.00 | 0.00 | 69 | 1013.7 |
| 20260905205927 | 26 | 9 | 3.2 | 9.7 | 0.00 | 0.00 | 0.00 | 70 | 1013.7 |
| 20260905205820 | 26 | 308 | 3.2 | 9.7 | 0.00 | 0.00 | 0.00 | 71 | 1013.7 |
| 20260905205721 | 26 | 15 | 3.2 | 9.7 | 0.00 | 0.00 | 0.00 | 70 | 1013.5 |
| 20260905205620 | 26 | 224 | 3.2 | 9.7 | 0.00 | 0.00 | 0.00 | 71 | 1013.7 |
| 20260905205521 | 26 | 290 | 3.2 | 9.7 | 0.00 | 0.00 | 0.00 | 72 | 1013.5 |
| 20260905205421 | 26 | 336 | 3.2 | 9.7 | 0.00 | 0.00 | 0.00 | 71 | 1013.7 |
| 20260905205317 | 26 | 277 | 4.8 | 12.9 | 0.00 | 0.00 | 0.00 | 71 | 1013.7 |
| 20260905205213 | 26 | 309 | 3.2 | 12.9 | 0.00 | 0.00 | 0.00 | 73 | 1013.5 |
| 20260905205115 | 26 | 260 | 3.2 | 12.9 | 0.00 | 0.00 | 0.00 | 72 | 1013.5 |
| 20260905205014 | 26 | 281 | 3.2 | 12.9 | 0.00 | 0.00 | 0.00 | 71 | 1013.5 |
| 20260905204914 | 26 | 300 | 3.2 | 12.9 | 0.00 | 0.00 | 0.00 | 72 | 1013.7 |
| 20260905204805 | 26 | 261 | 3.2 | 12.9 | 0.00 | 0.00 | 0.00 | 71 | 1013.7 |
| 20260905204703 | 26 | 294 | 3.2 | 12.9 | 0.00 | 0.00 | 0.00 | 70 | 1013.5 |
| 20260905204605 | 26 | 252 | 3.2 | 12.9 | 0.00 | 0.00 | 0.00 | 71 | 1013.7 |
| 20260905204503 | 26 | 202 | 3.2 | 12.9 | 0.00 | 0.00 | 0.00 | 71 | 1013.7 |
| 20260905204404 | 26 | 304 | 3.2 | 11.3 | 0.00 | 0.00 | 0.00 | 72 | 1013.7 |
| 20260905204300 | 26 | 326 | 3.2 | 11.3 | 0.00 | 0.00 | 0.00 | 74 | 1013.8 |
| 20260905204159 | 26 | 23 | 3.2 | 11.3 | 0.00 | 0.00 | 0.00 | 73 | 1013.7 |
| 20260905204100 | 26 | 231 | 3.2 | 11.3 | 0.00 | 0.00 | 0.00 | 72 | 1013.8 |
| 20260905203959 | 26 | 234 | 3.2 | 11.3 | 0.00 | 0.00 | 0.00 | 71 | 1013.8 |
| 20260905203859 | 26 | 157 | 3.2 | 8.0 | 0.00 | 0.00 | 0.00 | 72 | 1013.8 |
| 20260905203755 | 26 | 157 | 3.2 | 8.0 | 0.00 | 0.00 | 0.00 | 72 | 1013.8 |
| 20260905203654 | 26 | 320 | 3.2 | 8.0 | 0.00 | 0.00 | 0.00 | 71 | 1013.8 |
| 20260905203554 | 26 | 288 | 3.2 | 8.0 | 0.00 | 0.00 | 0.00 | 72 | 1013.8 |
| 20260905203455 | 26 | 279 | 3.2 | 8.0 | 0.00 | 0.00 | 0.00 | 72 | 1013.9 |
| 20260905203352 | 26 | 175 | 3.2 | 9.7 | 0.00 | 0.00 | 0.00 | 72 | 1013.9 |
| 20260905203245 | 26 | 183 | 3.2 | 9.7 | 0.00 | 0.00 | 0.00 | 71 | 1013.8 |
| 20260905203142 | 26 | 195 | 3.2 | 9.7 | 0.00 | 0.00 | 0.00 | 72 | 1013.9 |
| 20260905203041 | 26 | 188 | 3.2 | 9.7 | 0.00 | 0.00 | 0.00 | 72 | 1014.0 |
| 20260905202940 | 26 | 192 | 3.2 | 9.7 | 0.00 | 0.00 | 0.00 | 72 | 1013.9 |
| 20260905202839 | 26 | 153 | 3.2 | 9.7 | 0.00 | 0.00 | 0.00 | 73 | 1013.9 |
| 20260905202734 | 26 | 174 | 3.2 | 9.7 | 0.00 | 0.00 | 0.00 | 72 | 1014.0 |
| 20260905202634 | 26 | 174 | 3.2 | 9.7 | 0.00 | 0.00 | 0.00 | 72 | 1014.0 |
| 20260905202534 | 26 | 217 | 3.2 | 9.7 | 0.00 | 0.00 | 0.00 | 72 | 1014.0 |
| 20260905202435 | 26 | 198 | 3.2 | 9.7 | 0.00 | 0.00 | 0.00 | 72 | 1014.0 |
| 20260905202333 | 26 | 131 | 3.2 | 9.7 | 0.00 | 0.00 | 0.00 | 73 | 1014.1 |
| 20260905202228 | 26 | 130 | 3.2 | 9.7 | 0.00 | 0.00 | 0.00 | 72 | 1014.1 |
| 20260905202130 | 26 | 132 | 3.2 | 9.7 | 0.00 | 0.00 | 0.00 | 73 | 1014.1 |
| 20260905202028 | 26 | 176 | 1.6 | 9.7 | 0.00 | 0.00 | 0.00 | 73 | 1014.0 |
| 20260905201928 | 26 | 134 | 1.6 | 6.4 | 0.00 | 0.00 | 0.00 | 73 | 1014.1 |
| 20260905201827 | 26 | 134 | 1.6 | 6.4 | 0.00 | 0.00 | 0.00 | 73 | 1014.2 |
| 20260905201719 | 26 | 163 | 1.6 | 6.4 | 0.00 | 0.00 | 0.00 | 72 | 1014.1 |
| 20260905201617 | 26 | 157 | 1.6 | 4.8 | 0.00 | 0.00 | 0.00 | 72 | 1014.1 |
| 20260905201517 | 26 | 158 | 1.6 | 4.8 | 0.00 | 0.00 | 0.00 | 73 | 1014.1 |
| 20260905201417 | 26 | 74 | 1.6 | 4.8 | 0.00 | 0.00 | 0.00 | 73 | 1014.1 |
| 20260905201317 | 26 | 63 | 1.6 | 4.8 | 0.00 | 0.00 | 0.00 | 72 | 1014.1 |
| 20260905201210 | 26 | 0 | 1.6 | 4.8 | 0.00 | 0.00 | 0.00 | 73 | 1014.1 |
| 20260905201109 | 26 | 306 | 1.6 | 4.8 | 0.00 | 0.00 | 0.00 | 74 | 1014.1 |
| 20260905201011 | 26 | 197 | 1.6 | 4.8 | 0.00 | 0.00 | 0.00 | 73 | 1014.1 |
| 20260905200909 | 26 | 293 | 1.6 | 4.8 | 0.00 | 0.00 | 0.00 | 73 | 1014.1 |
| 20260905200810 | 26 | 211 | 1.6 | 4.8 | 0.00 | 0.00 | 0.00 | 72 | 1014.2 |
| 20260905200710 | 26 | 241 | 1.6 | 4.8 | 0.00 | 0.00 | 0.00 | 74 | 1014.2 |
| 20260905200608 | 26 | 271 | 1.6 | 4.8 | 0.00 | 0.00 | 0.00 | 73 | 1014.2 |
| 20260905200508 | 26 | 269 | 1.6 | 4.8 | 0.00 | 0.00 | 0.00 | 73 | 1014.1 |
| 20260905200407 | 26 | 269 | 1.6 | 4.8 | 0.00 | 0.00 | 0.00 | 72 | 1014.1 |
| 20260905200304 | 26 | 263 | 1.6 | 4.8 | 0.00 | 0.00 | 0.00 | 72 | 1014.2 |
| 20260905200203 | 26 | 220 | 1.6 | 4.8 | 0.00 | 0.00 | 0.00 | 72 | 1014.1 |
| 20260905200104 | 26 | 148 | 1.6 | 4.8 | 0.00 | 0.00 | 0.00 | 72 | 1014.2 |
| 20260905200001 | 26 | 148 | 1.6 | 4.8 | 0.00 | 0.00 | 0.00 | 74 | 1014.1 |
| 20260905195901 | 26 | 148 | 1.6 | 6.4 | 0.00 | 0.00 | 0.00 | 73 | 1014.1 |
| 20260905195759 | 26 | 148 | 1.6 | 6.4 | 0.00 | 0.00 | 0.00 | 72 | 1014.2 |
| 20260905195646 | 26 | 148 | 1.6 | 6.4 | 0.00 | 0.00 | 0.00 | 73 | 1014.1 |
| 20260905195545 | 26 | 150 | 1.6 | 6.4 | 0.00 | 0.00 | 0.00 | 72 | 1014.1 |
| 20260905195446 | 26 | 150 | 1.6 | 6.4 | 0.00 | 0.00 | 0.00 | 71 | 1014.2 |
| 20260905195346 | 26 | 157 | 1.6 | 6.4 | 0.00 | 0.00 | 0.00 | 72 | 1014.1 |
| 20260905195244 | 26 | 169 | 1.6 | 6.4 | 0.00 | 0.00 | 0.00 | 74 | 1014.2 |
| 20260905195139 | 26 | 169 | 1.6 | 6.4 | 0.00 | 0.00 | 0.00 | 72 | 1014.2 |
| 20260905195040 | 26 | 169 | 1.6 | 6.4 | 0.00 | 0.00 | 0.00 | 72 | 1014.2 |
| 20260905194939 | 26 | 169 | 1.6 | 6.4 | 0.00 | 0.00 | 0.00 | 72 | 1014.1 |
| 20260905194839 | 26 | 172 | 1.6 | 11.3 | 0.00 | 0.00 | 0.00 | 71 | 1014.1 |
| 20260905194738 | 26 | 176 | 1.6 | 11.3 | 0.00 | 0.00 | 0.00 | 72 | 1014.2 |
| 20260905194628 | 26 | 175 | 1.6 | 11.3 | 0.00 | 0.00 | 0.00 | 72 | 1014.1 |
| 20260905194528 | 26 | 192 | 1.6 | 11.3 | 0.00 | 0.00 | 0.00 | 72 | 1014.1 |
| 20260905194428 | 26 | 189 | 1.6 | 11.3 | 0.00 | 0.00 | 0.00 | 71 | 1014.1 |
| 20260905194329 | 26 | 242 | 1.6 | 11.3 | 0.00 | 0.00 | 0.00 | 72 | 1014.1 |
| 20260905194228 | 26 | 242 | 3.2 | 11.3 | 0.00 | 0.00 | 0.00 | 73 | 1014.0 |
| 20260905194124 | 26 | 269 | 3.2 | 11.3 | 0.00 | 0.00 | 0.00 | 73 | 1013.9 |
| 20260905194024 | 26 | 245 | 3.2 | 11.3 | 0.00 | 0.00 | 0.00 | 70 | 1014.0 |
| 20260905193925 | 26 | 185 | 1.6 | 6.4 | 0.00 | 0.00 | 0.00 | 70 | 1013.9 |
| 20260905193824 | 26 | 197 | 1.6 | 6.4 | 0.00 | 0.00 | 0.00 | 72 | 1013.9 |
| 20260905193722 | 26 | 200 | 3.2 | 6.4 | 0.00 | 0.00 | 0.00 | 73 | 1014.0 |
| 20260905193618 | 26 | 177 | 3.2 | 6.4 | 0.00 | 0.00 | 0.00 | 73 | 1014.0 |
| 20260905193518 | 26 | 191 | 3.2 | 6.4 | 0.00 | 0.00 | 0.00 | 73 | 1014.0 |
| 20260905193418 | 26 | 191 | 3.2 | 6.4 | 0.00 | 0.00 | 0.00 | 73 | 1013.9 |
| 20260905193318 | 26 | 276 | 1.6 | 4.8 | 0.00 | 0.00 | 0.00 | 73 | 1013.9 |
| 20260905193217 | 26 | 275 | 1.6 | 4.8 | 0.00 | 0.00 | 0.00 | 72 | 1014.1 |
| 20260905193107 | 26 | 221 | 1.6 | 4.8 | 0.00 | 0.00 | 0.00 | 73 | 1014.1 |
| 20260905193007 | 26 | 297 | 1.6 | 4.8 | 0.00 | 0.00 | 0.00 | 73 | 1014.1 |
| 20260905192907 | 26 | 297 | 3.2 | 4.8 | 0.00 | 0.00 | 0.00 | 73 | 1014.2 |
| 20260905192806 | 26 | 292 | 3.2 | 4.8 | 0.00 | 0.00 | 0.00 | 73 | 1014.2 |
| 20260905192707 | 26 | 311 | 3.2 | 4.8 | 0.00 | 0.00 | 0.00 | 74 | 1014.3 |
| 20260905192603 | 26 | 202 | 3.2 | 4.8 | 0.00 | 0.00 | 0.00 | 73 | 1014.2 |
| 20260905192501 | 25 | 202 | 3.2 | 8.0 | 0.00 | 0.00 | 0.00 | 72 | 1014.3 |
| 20260905192400 | 25 | 186 | 3.2 | 8.0 | 0.00 | 0.00 | 0.00 | 74 | 1014.3 |
| 20260905192301 | 25 | 185 | 3.2 | 8.0 | 0.00 | 0.00 | 0.00 | 73 | 1014.3 |
| 20260905192201 | 25 | 274 | 3.2 | 8.0 | 0.00 | 0.00 | 0.00 | 72 | 1014.2 |
| 20260905192053 | 25 | 275 | 3.2 | 8.0 | 0.00 | 0.00 | 0.00 | 73 | 1014.3 |
| 20260905191955 | 25 | 274 | 3.2 | 8.0 | 0.00 | 0.00 | 0.00 | 71 | 1014.2 |
| 20260905191854 | 25 | 271 | 3.2 | 8.0 | 0.00 | 0.00 | 0.00 | 71 | 1014.2 |
| 20260905191753 | 25 | 273 | 3.2 | 8.0 | 0.00 | 0.00 | 0.00 | 71 | 1014.2 |
| 20260905191655 | 25 | 271 | 3.2 | 8.0 | 0.00 | 0.00 | 0.00 | 71 | 1014.2 |
| 20260905191546 | 25 | 297 | 3.2 | 8.0 | 0.00 | 0.00 | 0.00 | 72 | 1014.2 |
| 20260905191444 | 25 | 323 | 3.2 | 6.4 | 0.00 | 0.00 | 0.00 | 72 | 1014.2 |
| 20260905191345 | 25 | 318 | 3.2 | 6.4 | 0.00 | 0.00 | 0.00 | 71 | 1014.1 |
| 20260905191243 | 25 | 329 | 3.2 | 9.7 | 0.00 | 0.00 | 0.00 | 73 | 1014.1 |
| 20260905191145 | 25 | 329 | 3.2 | 9.7 | 0.00 | 0.00 | 0.00 | 73 | 1014.0 |
| 20260905191044 | 25 | 327 | 4.8 | 9.7 | 0.00 | 0.00 | 0.00 | 72 | 1014.0 |
| 20260905190943 | 25 | 295 | 4.8 | 9.7 | 0.00 | 0.00 | 0.00 | 73 | 1013.9 |
| 20260905190839 | 25 | 295 | 4.8 | 9.7 | 0.00 | 0.00 | 0.00 | 72 | 1013.9 |
| 20260905190740 | 25 | 294 | 4.8 | 9.7 | 0.00 | 0.00 | 0.00 | 71 | 1013.9 |
| 20260905190638 | 25 | 328 | 6.4 | 11.3 | 0.00 | 0.00 | 0.00 | 71 | 1013.9 |
| 20260905190531 | 25 | 296 | 6.4 | 12.9 | 0.00 | 0.00 | 0.00 | 70 | 1013.8 |
| 20260905190432 | 25 | 296 | 6.4 | 12.9 | 0.00 | 0.00 | 0.00 | 69 | 1013.9 |
| 20260905190330 | 25 | 289 | 8.0 | 14.5 | 0.00 | 0.00 | 0.00 | 70 | 1013.9 |
| 20260905190229 | 25 | 315 | 8.0 | 14.5 | 0.00 | 0.00 | 0.00 | 71 | 1013.9 |
| 20260905190130 | 25 | 298 | 8.0 | 14.5 | 0.00 | 0.00 | 0.00 | 69 | 1013.9 |
| 20260905190022 | 25 | 342 | 8.0 | 14.5 | 0.00 | 0.00 | 0.00 | 69 | 1013.9 |
| 20260905185922 | 25 | 340 | 8.0 | 14.5 | 0.00 | 0.00 | 0.00 | 71 | 1013.9 |
| 20260905185821 | 25 | 337 | 8.0 | 14.5 | 0.00 | 0.00 | 0.00 | 71 | 1013.8 |
| 20260905185722 | 25 | 325 | 9.7 | 14.5 | 0.00 | 0.00 | 0.00 | 69 | 1014.0 |
| 20260905185621 | 25 | 318 | 8.0 | 14.5 | 0.00 | 0.00 | 0.00 | 70 | 1013.9 |
| 20260905185517 | 25 | 311 | 8.0 | 14.5 | 0.00 | 0.00 | 0.00 | 69 | 1013.8 |
| 20260905185414 | 25 | 323 | 8.0 | 14.5 | 0.00 | 0.00 | 0.00 | 71 | 1013.9 |
| 20260905185315 | 25 | 324 | 8.0 | 14.5 | 0.00 | 0.00 | 0.00 | 71 | 1013.9 |
| 20260905185214 | 25 | 313 | 8.0 | 14.5 | 0.00 | 0.00 | 0.00 | 72 | 1013.9 |
| 20260905185115 | 25 | 318 | 8.0 | 14.5 | 0.00 | 0.00 | 0.00 | 72 | 1014.0 |
| 20260905185009 | 25 | 337 | 8.0 | 14.5 | 0.00 | 0.00 | 0.00 | 71 | 1014.0 |
| 20260905184908 | 25 | 326 | 8.0 | 14.5 | 0.00 | 0.00 | 0.00 | 71 | 1014.0 |
| 20260905184808 | 25 | 332 | 9.7 | 14.5 | 0.00 | 0.00 | 0.00 | 70 | 1013.9 |
| 20260905184708 | 25 | 299 | 9.7 | 16.1 | 0.00 | 0.00 | 0.00 | 71 | 1013.9 |
| 20260905184609 | 25 | 341 | 9.7 | 16.1 | 0.00 | 0.00 | 0.00 | 71 | 1014.0 |
| 20260905184458 | 25 | 340 | 9.7 | 16.1 | 0.00 | 0.00 | 0.00 | 71 | 1013.9 |
| 20260905184359 | 25 | 335 | 9.7 | 16.1 | 0.00 | 0.00 | 0.00 | 71 | 1013.9 |
| 20260905184259 | 25 | 304 | 9.7 | 16.1 | 0.00 | 0.00 | 0.00 | 70 | 1013.9 |
| 20260905184157 | 25 | 274 | 9.7 | 16.1 | 0.00 | 0.00 | 0.00 | 70 | 1013.9 |
| 20260905184059 | 25 | 313 | 9.7 | 16.1 | 0.00 | 0.00 | 0.00 | 70 | 1013.9 |
| 20260905183953 | 25 | 325 | 9.7 | 17.7 | 0.00 | 0.00 | 0.00 | 69 | 1014.0 |
| 20260905183851 | 25 | 303 | 9.7 | 17.7 | 0.00 | 0.00 | 0.00 | 70 | 1013.9 |
| 20260905183751 | 25 | 329 | 9.7 | 17.7 | 0.00 | 0.00 | 0.00 | 70 | 1014.0 |
| 20260905183653 | 25 | 314 | 9.7 | 17.7 | 0.00 | 0.00 | 0.00 | 70 | 1014.0 |
| 20260905183552 | 25 | 306 | 9.7 | 17.7 | 0.00 | 0.00 | 0.00 | 71 | 1014.1 |
| 20260905183446 | 25 | 343 | 11.3 | 17.7 | 0.00 | 0.00 | 0.00 | 71 | 1014.2 |
| 20260905183347 | 25 | 322 | 11.3 | 19.3 | 0.00 | 0.00 | 0.00 | 70 | 1014.3 |
| 20260905183247 | 25 | 327 | 12.9 | 19.3 | 0.00 | 0.00 | 0.00 | 70 | 1014.5 |
| 20260905183145 | 25 | 279 | 12.9 | 24.1 | 0.00 | 0.00 | 0.00 | 70 | 1014.5 |
| 20260905183046 | 25 | 319 | 12.9 | 24.1 | 0.00 | 0.00 | 0.00 | 70 | 1014.5 |
| 20260905182937 | 25 | 325 | 12.9 | 24.1 | 0.00 | 0.00 | 0.00 | 69 | 1014.6 |
| 20260905182835 | 25 | 323 | 12.9 | 24.1 | 0.00 | 0.00 | 0.00 | 69 | 1014.4 |
| 20260905182736 | 25 | 329 | 14.5 | 24.1 | 0.00 | 0.00 | 0.00 | 69 | 1014.2 |
| 20260905182636 | 25 | 309 | 14.5 | 24.1 | 0.00 | 0.00 | 0.00 | 68 | 1014.2 |
| 20260905182536 | 25 | 289 | 14.5 | 24.1 | 0.00 | 0.00 | 0.00 | 68 | 1014.4 |
| 20260905182434 | 25 | 315 | 14.5 | 24.1 | 0.00 | 0.00 | 0.00 | 69 | 1014.6 |
| 20260905182333 | 25 | 298 | 14.5 | 24.1 | 0.00 | 0.00 | 0.00 | 68 | 1014.7 |
| 20260905182233 | 25 | 275 | 12.9 | 22.5 | 0.00 | 0.00 | 0.00 | 69 | 1014.8 |
| 20260905182134 | 25 | 288 | 12.9 | 20.9 | 0.00 | 0.00 | 0.00 | 68 | 1014.8 |
| 20260905182033 | 25 | 290 | 12.9 | 20.9 | 0.00 | 0.00 | 0.00 | 68 | 1014.8 |
| 20260905181935 | 25 | 288 | 12.9 | 20.9 | 0.00 | 0.00 | 0.00 | 67 | 1014.6 |
| 20260905181834 | 25 | 326 | 12.9 | 20.9 | 0.00 | 0.00 | 0.00 | 66 | 1014.4 |
| 20260905181733 | 25 | 298 | 11.3 | 20.9 | 0.00 | 0.00 | 0.00 | 67 | 1014.4 |
| 20260905181634 | 25 | 300 | 12.9 | 22.5 | 0.00 | 0.00 | 0.00 | 67 | 1014.4 |
| 20260905181534 | 25 | 327 | 11.3 | 22.5 | 0.00 | 0.00 | 0.00 | 66 | 1014.4 |
| 20260905181434 | 25 | 332 | 12.9 | 22.5 | 0.00 | 0.00 | 0.00 | 66 | 1014.5 |
| 20260905181335 | 25 | 302 | 12.9 | 25.7 | 0.00 | 0.00 | 0.00 | 67 | 1014.5 |
| 20260905181234 | 25 | 334 | 12.9 | 25.7 | 0.00 | 0.00 | 0.00 | 67 | 1014.6 |
| 20260905181134 | 25 | 311 | 12.9 | 25.7 | 0.00 | 0.00 | 0.00 | 68 | 1014.6 |
| 20260905181034 | 25 | 336 | 14.5 | 25.7 | 0.00 | 0.00 | 0.00 | 68 | 1014.7 |
| 20260905180936 | 25 | 333 | 14.5 | 25.7 | 0.00 | 0.00 | 0.00 | 67 | 1014.8 |
| 20260905180835 | 25 | 325 | 14.5 | 25.7 | 0.00 | 0.00 | 0.00 | 67 | 1014.9 |
| 20260905180735 | 25 | 292 | 14.5 | 25.7 | 0.00 | 0.00 | 0.00 | 67 | 1014.8 |
| 20260905180632 | 25 | 297 | 14.5 | 25.7 | 0.00 | 0.00 | 0.00 | 66 | 1014.7 |
| 20260905180532 | 25 | 315 | 14.5 | 25.7 | 0.00 | 0.00 | 0.00 | 66 | 1014.5 |
| 20260905180432 | 25 | 325 | 14.5 | 25.7 | 0.00 | 0.00 | 0.00 | 65 | 1014.4 |
| 20260905180331 | 25 | 327 | 16.1 | 24.1 | 0.00 | 0.00 | 0.00 | 66 | 1014.5 |
| 20260905180231 | 25 | 342 | 16.1 | 24.1 | 0.00 | 0.00 | 0.00 | 65 | 1014.7 |
| 20260905180131 | 25 | 331 | 16.1 | 24.1 | 0.00 | 0.00 | 0.00 | 65 | 1014.8 |
| 20260905180031 | 25 | 308 | 16.1 | 24.1 | 0.00 | 0.00 | 0.00 | 66 | 1015.0 |
| 20260905175932 | 26 | 331 | 16.1 | 24.1 | 0.00 | 0.00 | 0.00 | 65 | 1015.1 |
| 20260905175832 | 26 | 315 | 16.1 | 24.1 | 0.00 | 0.00 | 0.00 | 66 | 1015.3 |
| 20260905175733 | 26 | 329 | 16.1 | 24.1 | 0.00 | 0.00 | 0.00 | 65 | 1015.3 |
| 20260905175633 | 26 | 306 | 16.1 | 24.1 | 0.00 | 0.00 | 0.00 | 65 | 1015.4 |
| 20260905175531 | 26 | 345 | 16.1 | 24.1 | 0.00 | 0.00 | 0.00 | 65 | 1015.4 |
| 20260905175432 | 26 | 317 | 16.1 | 24.1 | 0.00 | 0.00 | 0.00 | 64 | 1015.5 |
| 20260905175332 | 26 | 334 | 16.1 | 30.6 | 0.00 | 0.00 | 0.00 | 64 | 1015.6 |
| 20260905175232 | 26 | 340 | 16.1 | 30.6 | 0.00 | 0.00 | 0.00 | 64 | 1015.8 |
| 20260905175131 | 26 | 333 | 17.7 | 30.6 | 0.00 | 0.00 | 0.00 | 65 | 1015.9 |
| 20260905175031 | 26 | 333 | 17.7 | 30.6 | 0.00 | 0.00 | 0.00 | 65 | 1016.0 |
| 20260905174931 | 26 | 292 | 17.7 | 30.6 | 0.00 | 0.00 | 0.00 | 65 | 1016.1 |
| 20260905174832 | 26 | 319 | 17.7 | 30.6 | 0.00 | 0.00 | 0.00 | 65 | 1016.0 |
| 20260905174733 | 26 | 338 | 17.7 | 30.6 | 0.00 | 0.00 | 0.00 | 65 | 1016.0 |
| 20260905174633 | 26 | 332 | 17.7 | 30.6 | 0.00 | 0.00 | 0.00 | 65 | 1016.0 |
| 20260905174533 | 26 | 324 | 17.7 | 30.6 | 0.00 | 0.00 | 0.00 | 65 | 1016.1 |
| 20260905174431 | 26 | 350 | 17.7 | 30.6 | 0.00 | 0.00 | 0.00 | 64 | 1016.1 |
| 20260905174333 | 26 | 330 | 17.7 | 30.6 | 0.00 | 0.00 | 0.00 | 65 | 1016.2 |
| 20260905174231 | 26 | 321 | 17.7 | 30.6 | 0.00 | 0.00 | 0.00 | 65 | 1016.2 |
| 20260905174132 | 26 | 315 | 17.7 | 30.6 | 0.00 | 0.00 | 0.00 | 65 | 1016.3 |
| 20260905174033 | 26 | 306 | 17.7 | 30.6 | 0.00 | 0.00 | 0.00 | 65 | 1016.4 |
| 20260905173929 | 26 | 332 | 19.3 | 33.8 | 0.00 | 0.00 | 0.00 | 66 | 1016.4 |
| 20260905173828 | 26 | 355 | 17.7 | 33.8 | 0.00 | 0.00 | 0.00 | 66 | 1016.4 |
| 20260905173727 | 26 | 328 | 19.3 | 33.8 | 0.00 | 0.00 | 0.00 | 68 | 1016.4 |
| 20260905173627 | 26 | 331 | 19.3 | 33.8 | 0.00 | 0.00 | 0.00 | 67 | 1016.4 |
| 20260905173527 | 26 | 309 | 20.9 | 33.8 | 0.00 | 0.00 | 0.00 | 68 | 1016.3 |
| 20260905173427 | 26 | 18 | 20.9 | 33.8 | 0.00 | 0.00 | 0.00 | 67 | 1016.3 |
| 20260905173327 | 27 | 313 | 22.5 | 33.8 | 0.00 | 0.00 | 0.00 | 67 | 1016.2 |
| 20260905173228 | 27 | 355 | 22.5 | 33.8 | 0.00 | 0.00 | 0.00 | 67 | 1016.2 |
| 20260905173129 | 27 | 307 | 22.5 | 37.0 | 0.00 | 0.00 | 0.00 | 66 | 1016.3 |
| 20260905173027 | 27 | 315 | 24.1 | 37.0 | 0.00 | 0.00 | 0.00 | 65 | 1016.2 |
| 20260905172928 | 27 | 332 | 24.1 | 37.0 | 0.00 | 0.00 | 0.00 | 68 | 1016.1 |
| 20260905172827 | 27 | 313 | 24.1 | 37.0 | 0.00 | 0.00 | 0.00 | 68 | 1016.1 |
| 20260905172727 | 27 | 299 | 24.1 | 37.0 | 0.00 | 0.00 | 0.00 | 68 | 1016.2 |
| 20260905172628 | 27 | 314 | 24.1 | 40.2 | 0.00 | 0.00 | 0.00 | 69 | 1016.1 |
| 20260905172528 | 27 | 322 | 25.7 | 43.5 | 0.00 | 0.00 | 0.00 | 68 | 1016.1 |
| 20260905172428 | 27 | 312 | 25.7 | 43.5 | 0.00 | 0.00 | 0.00 | 68 | 1015.9 |
| 20260905172328 | 27 | 306 | 25.7 | 43.5 | 0.00 | 0.00 | 0.00 | 68 | 1015.9 |
| 20260905172227 | 27 | 303 | 25.7 | 46.7 | 0.00 | 0.00 | 0.00 | 67 | 1016.0 |
| 20260905172127 | 28 | 327 | 24.1 | 46.7 | 0.00 | 0.00 | 0.00 | 69 | 1015.9 |
| 20260905172029 | 28 | 329 | 24.1 | 46.7 | 0.00 | 0.00 | 0.00 | 69 | 1016.0 |
| 20260905171927 | 28 | 297 | 24.1 | 46.7 | 0.00 | 0.00 | 0.00 | 70 | 1016.0 |
| 20260905171828 | 28 | 318 | 22.5 | 46.7 | 0.00 | 0.00 | 0.00 | 69 | 1015.9 |
| 20260905171729 | 29 | 314 | 20.9 | 46.7 | 0.00 | 0.00 | 0.00 | 67 | 1016.0 |
| 20260905171627 | 29 | 286 | 19.3 | 46.7 | 0.00 | 0.00 | 0.00 | 67 | 1016.0 |
| 20260905171529 | 29 | 312 | 19.3 | 46.7 | 0.00 | 0.00 | 0.00 | 66 | 1015.9 |
| 20260905171428 | 29 | 279 | 17.7 | 46.7 | 0.00 | 0.00 | 0.00 | 66 | 1015.9 |
| 20260905171320 | 29 | 278 | 17.7 | 46.7 | 0.00 | 0.00 | 0.00 | 66 | 1015.9 |
| 20260905171221 | 30 | 254 | 16.1 | 33.8 | 0.00 | 0.00 | 0.00 | 66 | 1015.8 |
| 20260905171120 | 30 | 342 | 16.1 | 33.8 | 0.00 | 0.00 | 0.00 | 65 | 1015.8 |
| 20260905171020 | 30 | 277 | 14.5 | 32.2 | 0.00 | 0.00 | 0.00 | 68 | 1015.9 |
| 20260905170919 | 30 | 331 | 14.5 | 25.7 | 0.00 | 0.00 | 0.00 | 69 | 1015.8 |
| 20260905170821 | 30 | 284 | 12.9 | 25.7 | 0.00 | 0.00 | 0.00 | 68 | 1015.8 |
| 20260905170719 | 30 | 243 | 12.9 | 25.7 | 0.00 | 0.00 | 0.00 | 67 | 1015.8 |
| 20260905170621 | 30 | 334 | 12.9 | 25.7 | 0.00 | 0.00 | 0.00 | 68 | 1015.8 |
| 20260905170519 | 30 | 293 | 12.9 | 25.7 | 0.00 | 0.00 | 0.00 | 67 | 1015.7 |
| 20260905170419 | 30 | 321 | 12.9 | 25.7 | 0.00 | 0.00 | 0.00 | 68 | 1015.8 |
| 20260905170319 | 30 | 286 | 11.3 | 22.5 | 0.00 | 0.00 | 0.00 | 68 | 1015.8 |
| 20260905170220 | 30 | 296 | 11.3 | 22.5 | 0.00 | 0.00 | 0.00 | 70 | 1015.9 |
| 20260905170121 | 30 | 336 | 11.3 | 22.5 | 0.00 | 0.00 | 0.00 | 70 | 1016.0 |
| 20260905170020 | 30 | 321 | 11.3 | 22.5 | 0.00 | 0.00 | 0.00 | 70 | 1016.0 |
| 20260905165919 | 30 | 299 | 11.3 | 22.5 | 0.00 | 0.00 | 0.00 | 70 | 1016.1 |
| 20260905165820 | 30 | 319 | 12.9 | 24.1 | 0.00 | 0.00 | 0.00 | 70 | 1016.1 |
| 20260905165719 | 30 | 309 | 11.3 | 24.1 | 0.00 | 0.00 | 0.00 | 70 | 1016.1 |
| 20260905165620 | 30 | 317 | 11.3 | 24.1 | 0.00 | 0.00 | 0.00 | 69 | 1016.2 |
| 20260905165519 | 30 | 331 | 9.7 | 24.1 | 0.00 | 0.00 | 0.00 | 69 | 1016.2 |
| 20260905165420 | 30 | 299 | 8.0 | 24.1 | 0.00 | 0.00 | 0.00 | 69 | 1016.3 |
| 20260905165321 | 30 | 286 | 6.4 | 24.1 | 0.00 | 0.00 | 0.00 | 68 | 1016.2 |
| 20260905165221 | 30 | 307 | 6.4 | 24.1 | 0.00 | 0.00 | 0.00 | 68 | 1016.3 |
| 20260905165119 | 30 | 329 | 4.8 | 24.1 | 0.00 | 0.00 | 0.00 | 67 | 1016.2 |
| 20260905165019 | 30 | 323 | 3.2 | 24.1 | 0.00 | 0.00 | 0.00 | 66 | 1016.3 |
| 20260905164920 | 30 | 291 | 1.6 | 24.1 | 0.00 | 0.00 | 0.00 | 68 | 1016.4 |
| 20260905164821 | 30 | 303 | 1.6 | 16.1 | 0.00 | 0.00 | 0.00 | 68 | 1016.3 |
| 20260905164719 | 30 | 308 | 0.0 | 0.0 | 0.00 | 0.00 | 0.00 | 67 | 1016.3 |
| 20260905164621 | 30 | 324 | 0.0 | 0.0 | 0.00 | 0.00 | 0.00 | 68 | 1016.3 |
| 20260905164519 | 30 | 339 | 0.0 | 0.0 | 0.00 | 0.00 | 0.00 | 68 | 1016.3 |
| 20260905164420 | 30 | 319 | 0.0 | 0.0 | 0.00 | 0.00 | 0.00 | 68 | 1016.3 |
| 20260905164319 | 30 | 279 | 0.0 | 0.0 | 0.00 | 0.00 | 0.00 | 69 | 1016.3 |
| 20260905164219 | 30 | 341 | 0.0 | 0.0 | 0.00 | 0.00 | 0.00 | 70 | 1016.3 |
| 20260905164121 | 30 | 331 | 0.0 | 0.0 | 0.00 | 0.00 | 0.00 | 68 | 1016.3 |
| 20260905164015 | 30 | 335 | 0.0 | 0.0 | 0.00 | 0.00 | 0.00 | 69 | 1016.2 |
| 20260905163917 | 30 | 315 | 0.0 | 0.0 | 0.00 | 0.00 | 0.00 | 69 | 1016.3 |
| 20260905163817 | 30 | 346 | 0.0 | 3.2 | 0.00 | 0.00 | 0.00 | 69 | 1016.3 |
| 20260905163715 | 30 | 333 | 0.0 | 4.8 | 0.00 | 0.00 | 0.00 | 68 | 1016.3 |
| 20260905163616 | 30 | 313 | 0.0 | 4.8 | 0.00 | 0.00 | 0.00 | 70 | 1016.2 |
| 20260905163515 | 30 | 316 | 0.0 | 4.8 | 0.00 | 0.00 | 0.00 | 70 | 1016.2 |
| 20260905163416 | 30 | 334 | 0.0 | 4.8 | 0.00 | 0.00 | 0.00 | 69 | 1016.2 |
| 20260905163317 | 30 | 317 | 0.0 | 4.8 | 0.00 | 0.00 | 0.00 | 70 | 1016.3 |
| 20260905163215 | 30 | 332 | 0.0 | 4.8 | 0.00 | 0.00 | 0.00 | 69 | 1016.3 |
| 20260905163115 | 30 | 277 | 0.0 | 4.8 | 0.00 | 0.00 | 0.00 | 71 | 1016.2 |
| 20260905163016 | 30 | 15 | 1.6 | 12.9 | 0.00 | 0.00 | 0.00 | 70 | 1016.2 |
| 20260905162915 | 30 | 329 | 1.6 | 16.1 | 0.00 | 0.00 | 0.00 | 68 | 1016.2 |
| 20260905162815 | 30 | 261 | 3.2 | 19.3 | 0.00 | 0.00 | 0.00 | 68 | 1016.2 |
| 20260905162715 | 30 | 261 | 4.8 | 19.3 | 0.00 | 0.00 | 0.00 | 68 | 1016.2 |
| 20260905162616 | 30 | 276 | 6.4 | 19.3 | 0.00 | 0.00 | 0.00 | 69 | 1016.3 |
| 20260905162516 | 30 | 294 | 6.4 | 19.3 | 0.00 | 0.00 | 0.00 | 69 | 1016.3 |
| 20260905162416 | 30 | 265 | 8.0 | 19.3 | 0.00 | 0.00 | 0.00 | 69 | 1016.4 |
| 20260905162316 | 30 | 329 | 9.7 | 19.3 | 0.00 | 0.00 | 0.00 | 68 | 1016.3 |
| 20260905162215 | 30 | 294 | 9.7 | 19.3 | 0.00 | 0.00 | 0.00 | 69 | 1016.3 |
| 20260905162116 | 30 | 286 | 9.7 | 19.3 | 0.00 | 0.00 | 0.00 | 69 | 1016.3 |
| 20260905162015 | 30 | 331 | 9.7 | 19.3 | 0.00 | 0.00 | 0.00 | 67 | 1016.2 |
| 20260905161915 | 30 | 298 | 9.7 | 19.3 | 0.00 | 0.00 | 0.00 | 67 | 1016.3 |
| 20260905161816 | 30 | 304 | 9.7 | 17.7 | 0.00 | 0.00 | 0.00 | 69 | 1016.3 |
| 20260905161715 | 30 | 305 | 9.7 | 17.7 | 0.00 | 0.00 | 0.00 | 69 | 1016.2 |
| 20260905161615 | 30 | 321 | 8.0 | 17.7 | 0.00 | 0.00 | 0.00 | 69 | 1016.3 |
| 20260905161516 | 30 | 318 | 8.0 | 17.7 | 0.00 | 0.00 | 0.00 | 71 | 1016.3 |
| 20260905161416 | 30 | 319 | 6.4 | 14.5 | 0.00 | 0.00 | 0.00 | 69 | 1016.3 |
| 20260905161316 | 30 | 300 | 6.4 | 14.5 | 0.00 | 0.00 | 0.00 | 70 | 1016.3 |
| 20260905161215 | 30 | 323 | 6.4 | 14.5 | 0.00 | 0.00 | 0.00 | 70 | 1016.3 |
| 20260905161116 | 30 | 329 | 6.4 | 14.5 | 0.00 | 0.00 | 0.00 | 70 | 1016.2 |
| 20260905161016 | 30 | 336 | 4.8 | 14.5 | 0.00 | 0.00 | 0.00 | 71 | 1016.3 |
| 20260905160915 | 30 | 342 | 6.4 | 14.5 | 0.00 | 0.00 | 0.00 | 70 | 1016.3 |
| 20260905160816 | 30 | 348 | 4.8 | 12.9 | 0.00 | 0.00 | 0.00 | 71 | 1016.4 |
| 20260905160712 | 30 | 310 | 4.8 | 12.9 | 0.00 | 0.00 | 0.00 | 71 | 1016.3 |
| 20260905160611 | 30 | 5 | 3.2 | 11.3 | 0.00 | 0.00 | 0.00 | 70 | 1016.3 |
| 20260905160511 | 30 | 36 | 3.2 | 11.3 | 0.00 | 0.00 | 0.00 | 69 | 1016.3 |
| 20260905160411 | 30 | 261 | 3.2 | 12.9 | 0.00 | 0.00 | 0.00 | 70 | 1016.3 |
| 20260905160313 | 30 | 5 | 3.2 | 12.9 | 0.00 | 0.00 | 0.00 | 71 | 1016.3 |
| 20260905160209 | 30 | 5 | 3.2 | 12.9 | 0.00 | 0.00 | 0.00 | 71 | 1016.3 |
| 20260905160110 | 30 | 344 | 3.2 | 12.9 | 0.00 | 0.00 | 0.00 | 71 | 1016.3 |
| 20260905160010 | 30 | 349 | 3.2 | 12.9 | 0.00 | 0.00 | 0.00 | 70 | 1016.4 |
| 20260905155909 | 30 | 335 | 3.2 | 14.5 | 0.00 | 0.00 | 0.00 | 70 | 1016.4 |
| 20260905155810 | 30 | 329 | 3.2 | 16.1 | 0.00 | 0.00 | 0.00 | 71 | 1016.4 |
| 20260905155711 | 30 | 296 | 3.2 | 16.1 | 0.00 | 0.00 | 0.00 | 70 | 1016.4 |
| 20260905155610 | 30 | 322 | 3.2 | 16.1 | 0.00 | 0.00 | 0.00 | 70 | 1016.4 |
| 20260905155502 | 30 | 319 | 3.2 | 16.1 | 0.00 | 0.00 | 0.00 | 71 | 1016.4 |
| 20260905155400 | 30 | 306 | 3.2 | 16.1 | 0.00 | 0.00 | 0.00 | 69 | 1016.3 |
| 20260905155301 | 30 | 307 | 1.6 | 16.1 | 0.00 | 0.00 | 0.00 | 69 | 1016.3 |
| 20260905155158 | 30 | 305 | 1.6 | 16.1 | 0.00 | 0.00 | 0.00 | 69 | 1016.4 |
| 20260905155059 | 30 | 304 | 1.6 | 16.1 | 0.00 | 0.00 | 0.00 | 70 | 1016.5 |
| 20260905154957 | 30 | 308 | 1.6 | 16.1 | 0.00 | 0.00 | 0.00 | 70 | 1016.5 |
| 20260905154853 | 30 | 296 | 0.0 | 16.1 | 0.00 | 0.00 | 0.00 | 71 | 1016.4 |
| 20260905154753 | 30 | 315 | 0.0 | 9.7 | 0.00 | 0.00 | 0.00 | 69 | 1016.5 |
| 20260905154652 | 30 | 325 | 0.0 | 0.0 | 0.00 | 0.00 | 0.00 | 71 | 1016.6 |
| 20260905154551 | 30 | 309 | 0.0 | 0.0 | 0.00 | 0.00 | 0.00 | 69 | 1016.5 |
| 20260905154446 | 30 | 355 | 0.0 | 0.0 | 0.00 | 0.00 | 0.00 | 69 | 1016.5 |
| 20260905154347 | 30 | 312 | 0.0 | 0.0 | 0.00 | 0.00 | 0.00 | 70 | 1016.5 |
| 20260905154246 | 30 | 311 | 0.0 | 0.0 | 0.00 | 0.00 | 0.00 | 70 | 1016.5 |
| 20260905154147 | 30 | 338 | 0.0 | 0.0 | 0.00 | 0.00 | 0.00 | 70 | 1016.5 |
| 20260905154043 | 30 | 332 | 0.0 | 0.0 | 0.00 | 0.00 | 0.00 | 70 | 1016.4 |
| 20260905153933 | 30 | 314 | 0.0 | 0.0 | 0.00 | 0.00 | 0.00 | 70 | 1016.5 |
| 20260905153833 | 30 | 347 | 0.0 | 0.0 | 0.00 | 0.00 | 0.00 | 71 | 1016.5 |
| 20260905153735 | 30 | 308 | 0.0 | 0.0 | 0.00 | 0.00 | 0.00 | 70 | 1016.4 |
| 20260905153635 | 30 | 288 | 0.0 | 0.0 | 0.00 | 0.00 | 0.00 | 70 | 1016.4 |
| 20260905153534 | 30 | 330 | 0.0 | 0.0 | 0.00 | 0.00 | 0.00 | 69 | 1016.5 |
| 20260905153427 | 30 | 273 | 0.0 | 0.0 | 0.00 | 0.00 | 0.00 | 69 | 1016.5 |
| 20260905153325 | 30 | 293 | 0.0 | 0.0 | 0.00 | 0.00 | 0.00 | 69 | 1016.4 |
| 20260905153225 | 30 | 312 | 0.0 | 0.0 | 0.00 | 0.00 | 0.00 | 71 | 1016.4 |
| 20260905153126 | 30 | 328 | 0.0 | 0.0 | 0.00 | 0.00 | 0.00 | 71 | 1016.4 |
| 20260905153026 | 30 | 333 | 0.0 | 0.0 | 0.00 | 0.00 | 0.00 | 69 | 1016.4 |
| 20260905152920 | 30 | 317 | 0.0 | 0.0 | 0.00 | 0.00 | 0.00 | 69 | 1016.4 |
| 20260905152820 | 30 | 315 | 0.0 | 0.0 | 0.00 | 0.00 | 0.00 | 71 | 1016.3 |
| 20260905152720 | 30 | 311 | 0.0 | 0.0 | 0.00 | 0.00 | 0.00 | 70 | 1016.4 |
| 20260905152621 | 30 | 317 | 0.0 | 0.0 | 0.00 | 0.00 | 0.00 | 69 | 1016.4 |
| 20260905152520 | 30 | 0 | 0.0 | 0.0 | 0.00 | 0.00 | 0.00 | 70 | 1016.3 |
| 20260905152411 | 30 | 10 | 0.0 | 0.0 | 0.00 | 0.00 | 0.00 | 71 | 1016.4 |
| 20260905152310 | 30 | 9 | 0.0 | 0.0 | 0.00 | 0.00 | 0.00 | 70 | 1016.4 |
| 20260905152211 | 30 | 9 | 0.0 | 0.0 | 0.00 | 0.00 | 0.00 | 69 | 1016.3 |
| 20260905152110 | 30 | 11 | 0.0 | 0.0 | 0.00 | 0.00 | 0.00 | 70 | 1016.3 |
| 20260905152010 | 30 | 319 | 0.0 | 0.0 | 0.00 | 0.00 | 0.00 | 70 | 1016.3 |
| 20260905151905 | 30 | 317 | 0.0 | 0.0 | 0.00 | 0.00 | 0.00 | 70 | 1016.3 |
| 20260905151804 | 30 | 317 | 0.0 | 0.0 | 0.00 | 0.00 | 0.00 | 69 | 1016.3 |
| 20260905151704 | 30 | 0 | 0.0 | 0.0 | 0.00 | 0.00 | 0.00 | 69 | 1016.3 |
| 20260905151603 | 30 | 313 | 0.0 | 0.0 | 0.00 | 0.00 | 0.00 | 71 | 1016.3 |
| 20260905151505 | 30 | 348 | 0.0 | 0.0 | 0.00 | 0.00 | 0.00 | 70 | 1016.3 |
| 20260905151403 | 30 | 350 | 0.0 | 0.0 | 0.00 | 0.00 | 0.00 | 71 | 1016.2 |
| 20260905151302 | 30 | 350 | 0.0 | 0.0 | 0.00 | 0.00 | 0.00 | 71 | 1016.2 |
| 20260905151201 | 30 | 350 | 0.0 | 0.0 | 0.00 | 0.00 | 0.00 | 71 | 1016.2 |
| 20260905151100 | 30 | 350 | 0.0 | 0.0 | 0.00 | 0.00 | 0.00 | 70 | 1016.2 |
| 20260905150958 | 30 | 325 | 0.0 | 0.0 | 0.00 | 0.00 | 0.00 | 68 | 1016.2 |
| 20260905150852 | 30 | 334 | 0.0 | 0.0 | 0.00 | 0.00 | 0.00 | 70 | 1016.2 |
| 20260905150752 | 30 | 338 | 0.0 | 0.0 | 0.00 | 0.00 | 0.00 | 70 | 1016.2 |
| 20260905150653 | 30 | 337 | 0.0 | 0.0 | 0.00 | 0.00 | 0.00 | 72 | 1016.2 |
| 20260905150550 | 30 | 338 | 0.0 | 0.0 | 0.00 | 0.00 | 0.00 | 70 | 1016.2 |
| 20260905150448 | 30 | 333 | 0.0 | 0.0 | 0.00 | 0.00 | 0.00 | 72 | 1016.2 |
| 20260905150344 | 30 | 333 | 0.0 | 0.0 | 0.00 | 0.00 | 0.00 | 72 | 1016.3 |
| 20260905150241 | 30 | 333 | 0.0 | 0.0 | 0.00 | 0.00 | 0.00 | 70 | 1016.2 |
| 20260905150143 | 30 | 309 | 0.0 | 0.0 | 0.00 | 0.00 | 0.00 | 71 | 1016.2 |
| 20260905150041 | 30 | 321 | 0.0 | 0.0 | 0.00 | 0.00 | 0.00 | 72 | 1016.2 |
| 20260905145941 | 30 | 338 | 0.0 | 0.0 | 0.00 | 0.00 | 0.00 | 71 | 1016.2 |
| 20260905145839 | 30 | 337 | 0.0 | 0.0 | 0.00 | 0.00 | 0.00 | 71 | 1016.2 |
| 20260905145741 | 30 | 306 | 0.0 | 0.0 | 0.00 | 0.00 | 0.00 | 72 | 1016.2 |
| 20260905145639 | 30 | 338 | 0.0 | 6.4 | 0.00 | 0.00 | 0.00 | 73 | 1016.2 |
| 20260905145537 | 30 | 338 | 0.0 | 6.4 | 0.00 | 0.00 | 0.00 | 71 | 1016.2 |
| 20260905145436 | 30 | 338 | 0.0 | 6.4 | 0.00 | 0.00 | 0.00 | 72 | 1016.2 |
| 20260905145329 | 30 | 338 | 0.0 | 6.4 | 0.00 | 0.00 | 0.00 | 72 | 1016.3 |
| 20260905145225 | 30 | 314 | 0.0 | 6.4 | 0.00 | 0.00 | 0.00 | 70 | 1016.3 |
| 20260905145125 | 30 | 280 | 0.0 | 6.4 | 0.00 | 0.00 | 0.00 | 72 | 1016.2 |
| 20260905145026 | 30 | 310 | 0.0 | 6.4 | 0.00 | 0.00 | 0.00 | 71 | 1016.2 |
| 20260905144926 | 30 | 306 | 0.0 | 6.4 | 0.00 | 0.00 | 0.00 | 71 | 1016.2 |
| 20260905144825 | 30 | 327 | 0.0 | 6.4 | 0.00 | 0.00 | 0.00 | 71 | 1016.3 |
| 20260905144724 | 30 | 259 | 0.0 | 6.4 | 0.00 | 0.00 | 0.00 | 73 | 1016.3 |
| 20260905144621 | 30 | 319 | 0.0 | 4.8 | 0.00 | 0.00 | 0.00 | 74 | 1016.4 |
| 20260905144522 | 30 | 319 | 0.0 | 0.0 | 0.00 | 0.00 | 0.00 | 73 | 1016.4 |
| 20260905144420 | 30 | 316 | 0.0 | 0.0 | 0.00 | 0.00 | 0.00 | 70 | 1016.3 |
| 20260905144319 | 30 | 317 | 0.0 | 0.0 | 0.00 | 0.00 | 0.00 | 71 | 1016.3 |
| 20260905144217 | 30 | 315 | 0.0 | 0.0 | 0.00 | 0.00 | 0.00 | 71 | 1016.3 |
| 20260905144115 | 30 | 290 | 0.0 | 0.0 | 0.00 | 0.00 | 0.00 | 71 | 1016.4 |
| 20260905144016 | 30 | 326 | 0.0 | 0.0 | 0.00 | 0.00 | 0.00 | 72 | 1016.3 |
| 20260905143913 | 30 | 326 | 0.0 | 0.0 | 0.00 | 0.00 | 0.00 | 72 | 1016.4 |
| 20260905143804 | 30 | 326 | 0.0 | 0.0 | 0.00 | 0.00 | 0.00 | 72 | 1016.4 |
| 20260905143704 | 30 | 325 | 0.0 | 0.0 | 0.00 | 0.00 | 0.00 | 71 | 1016.3 |
| 20260905143603 | 30 | 325 | 0.0 | 0.0 | 0.00 | 0.00 | 0.00 | 70 | 1016.3 |
| 20260905143503 | 30 | 326 | 0.0 | 0.0 | 0.00 | 0.00 | 0.00 | 70 | 1016.4 |
| 20260905143403 | 30 | 326 | 0.0 | 0.0 | 0.00 | 0.00 | 0.00 | 70 | 1016.5 |
| 20260905143259 | 30 | 325 | 0.0 | 0.0 | 0.00 | 0.00 | 0.00 | 73 | 1016.4 |
| 20260905143157 | 30 | 275 | 0.0 | 0.0 | 0.00 | 0.00 | 0.00 | 72 | 1016.5 |
| 20260905143057 | 30 | 273 | 0.0 | 0.0 | 0.00 | 0.00 | 0.00 | 70 | 1016.4 |
| 20260905142958 | 30 | 273 | 0.0 | 0.0 | 0.00 | 0.00 | 0.00 | 71 | 1016.5 |
| 20260905142858 | 30 | 271 | 0.0 | 0.0 | 0.00 | 0.00 | 0.00 | 69 | 1016.4 |
| 20260905142757 | 30 | 270 | 0.0 | 0.0 | 0.00 | 0.00 | 0.00 | 71 | 1016.5 |
| 20260905142656 | 30 | 270 | 0.0 | 0.0 | 0.00 | 0.00 | 0.00 | 71 | 1016.4 |
| 20260905142553 | 30 | 269 | 0.0 | 0.0 | 0.00 | 0.00 | 0.00 | 71 | 1016.4 |
| 20260905142453 | 30 | 267 | 0.0 | 0.0 | 0.00 | 0.00 | 0.00 | 70 | 1016.4 |
| 20260905142351 | 30 | 267 | 0.0 | 0.0 | 0.00 | 0.00 | 0.00 | 71 | 1016.3 |
| 20260905142245 | 30 | 267 | 0.0 | 0.0 | 0.00 | 0.00 | 0.00 | 72 | 1016.4 |
| 20260905142146 | 30 | 271 | 0.0 | 0.0 | 0.00 | 0.00 | 0.00 | 70 | 1016.3 |
| 20260905142045 | 30 | 240 | 0.0 | 0.0 | 0.00 | 0.00 | 0.00 | 71 | 1016.3 |
| 20260905141944 | 29 | 161 | 0.0 | 0.0 | 0.00 | 0.00 | 0.00 | 70 | 1016.3 |
| 20260905141842 | 30 | 290 | 0.0 | 0.0 | 0.00 | 0.00 | 0.00 | 70 | 1016.3 |
| 20260905141738 | 29 | 290 | 0.0 | 0.0 | 0.00 | 0.00 | 0.00 | 70 | 1016.3 |
| 20260905141635 | 29 | 290 | 0.0 | 0.0 | 0.00 | 0.00 | 0.00 | 70 | 1016.3 |
| 20260905141536 | 29 | 290 | 0.0 | 0.0 | 0.00 | 0.00 | 0.00 | 69 | 1016.3 |
| 20260905141435 | 30 | 312 | 0.0 | 0.0 | 0.00 | 0.00 | 0.00 | 69 | 1016.3 |
| 20260905141336 | 29 | 288 | 0.0 | 0.0 | 0.00 | 0.00 | 0.00 | 70 | 1016.2 |
| 20260905141231 | 29 | 288 | 0.0 | 0.0 | 0.00 | 0.00 | 0.00 | 70 | 1016.3 |
| 20260905141129 | 30 | 279 | 0.0 | 0.0 | 0.00 | 0.00 | 0.00 | 70 | 1016.3 |
| 20260905141030 | 29 | 279 | 0.0 | 0.0 | 0.00 | 0.00 | 0.00 | 71 | 1016.3 |
| 20260905140929 | 29 | 278 | 0.0 | 0.0 | 0.00 | 0.00 | 0.00 | 69 | 1016.2 |
| 20260905140830 | 29 | 278 | 0.0 | 0.0 | 0.00 | 0.00 | 0.00 | 71 | 1016.2 |
| 20260905140724 | 29 | 278 | 0.0 | 0.0 | 0.00 | 0.00 | 0.00 | 69 | 1016.2 |
| 20260905140624 | 29 | 275 | 0.0 | 0.0 | 0.00 | 0.00 | 0.00 | 69 | 1016.3 |
| 20260905140524 | 29 | 275 | 0.0 | 0.0 | 0.00 | 0.00 | 0.00 | 70 | 1016.3 |
| 20260905140421 | 29 | 274 | 0.0 | 0.0 | 0.00 | 0.00 | 0.00 | 72 | 1016.2 |
| 20260905140320 | 29 | 274 | 0.0 | 0.0 | 0.00 | 0.00 | 0.00 | 70 | 1016.2 |
| 20260905140220 | 29 | 274 | 0.0 | 0.0 | 0.00 | 0.00 | 0.00 | 69 | 1016.2 |
| 20260905140119 | 29 | 274 | 0.0 | 0.0 | 0.00 | 0.00 | 0.00 | 69 | 1016.2 |
| 20260905140015 | 29 | 273 | 0.0 | 0.0 | 0.00 | 0.00 | 0.00 | 70 | 1016.3 |
| 20260905135915 | 29 | 273 | 0.0 | 0.0 | 0.00 | 0.00 | 0.00 | 71 | 1016.2 |
| 20260905135813 | 29 | 273 | 0.0 | 0.0 | 0.00 | 0.00 | 0.00 | 72 | 1016.2 |
| 20260905135713 | 29 | 273 | 0.0 | 0.0 | 0.00 | 0.00 | 0.00 | 70 | 1016.2 |
| 20260905135613 | 29 | 273 | 0.0 | 0.0 | 0.00 | 0.00 | 0.00 | 70 | 1016.2 |
| 20260905135509 | 29 | 273 | 0.0 | 0.0 | 0.00 | 0.00 | 0.00 | 70 | 1016.2 |
| 20260905135410 | 29 | 273 | 0.0 | 0.0 | 0.00 | 0.00 | 0.00 | 69 | 1016.2 |
| 20260905135308 | 29 | 326 | 0.0 | 0.0 | 0.00 | 0.00 | 0.00 | 71 | 1016.2 |
| 20260905135201 | 29 | 326 | 0.0 | 0.0 | 0.00 | 0.00 | 0.00 | 70 | 1016.2 |
| 20260905135101 | 29 | 326 | 0.0 | 0.0 | 0.00 | 0.00 | 0.00 | 70 | 1016.2 |
| 20260905135002 | 28 | 326 | 0.0 | 0.0 | 0.00 | 0.00 | 0.00 | 70 | 1016.2 |
| 20260905134859 | 28 | 326 | 0.0 | 0.0 | 0.00 | 0.00 | 0.00 | 70 | 1016.2 |
| 20260905134757 | 28 | 326 | 0.0 | 0.0 | 0.00 | 0.00 | 0.00 | 71 | 1016.3 |
| 20260905134658 | 28 | 326 | 0.0 | 0.0 | 0.00 | 0.00 | 0.00 | 73 | 1016.2 |
| 20260905134557 | 28 | 326 | 0.0 | 0.0 | 0.00 | 0.00 | 0.00 | 72 | 1016.2 |
| 20260905134453 | 28 | 326 | 0.0 | 0.0 | 0.00 | 0.00 | 0.00 | 72 | 1016.3 |
| 20260905134353 | 28 | 323 | 0.0 | 0.0 | 0.00 | 0.00 | 0.00 | 70 | 1016.2 |
| 20260905134251 | 28 | 321 | 0.0 | 0.0 | 0.00 | 0.00 | 0.00 | 72 | 1016.3 |
| 20260905134151 | 28 | 319 | 0.0 | 0.0 | 0.00 | 0.00 | 0.00 | 72 | 1016.2 |
| 20260905134049 | 28 | 303 | 0.0 | 0.0 | 0.00 | 0.00 | 0.00 | 72 | 1016.3 |
| 20260905133947 | 28 | 302 | 0.0 | 0.0 | 0.00 | 0.00 | 0.00 | 70 | 1016.3 |
| 20260905133847 | 28 | 302 | 0.0 | 0.0 | 0.00 | 0.00 | 0.00 | 70 | 1016.3 |
| 20260905133746 | 28 | 304 | 0.0 | 0.0 | 0.00 | 0.00 | 0.00 | 72 | 1016.3 |
| 20260905133639 | 28 | 297 | 0.0 | 0.0 | 0.00 | 0.00 | 0.00 | 71 | 1016.4 |
| 20260905133539 | 28 | 296 | 0.0 | 0.0 | 0.00 | 0.00 | 0.00 | 73 | 1016.4 |
| 20260905133439 | 28 | 295 | 0.0 | 0.0 | 0.00 | 0.00 | 0.00 | 72 | 1016.4 |
| 20260905133337 | 28 | 295 | 0.0 | 0.0 | 0.00 | 0.00 | 0.00 | 73 | 1016.3 |
| 20260905133236 | 28 | 295 | 0.0 | 0.0 | 0.00 | 0.00 | 0.00 | 71 | 1016.4 |
| 20260905133133 | 28 | 295 | 0.0 | 0.0 | 0.00 | 0.00 | 0.00 | 72 | 1016.4 |
| 20260905133034 | 28 | 295 | 0.0 | 0.0 | 0.00 | 0.00 | 0.00 | 72 | 1016.4 |
| 20260905132934 | 28 | 296 | 0.0 | 0.0 | 0.00 | 0.00 | 0.00 | 72 | 1016.4 |
| 20260905132832 | 28 | 296 | 0.0 | 0.0 | 0.00 | 0.00 | 0.00 | 72 | 1016.4 |
| 20260905132730 | 28 | 296 | 0.0 | 0.0 | 0.00 | 0.00 | 0.00 | 73 | 1016.3 |
| 20260905132629 | 28 | 296 | 0.0 | 0.0 | 0.00 | 0.00 | 0.00 | 72 | 1016.4 |
| 20260905132527 | 28 | 296 | 0.0 | 0.0 | 0.00 | 0.00 | 0.00 | 72 | 1016.4 |
| 20260905132425 | 28 | 296 | 0.0 | 0.0 | 0.00 | 0.00 | 0.00 | 73 | 1016.3 |
| 20260905132326 | 28 | 296 | 0.0 | 0.0 | 0.00 | 0.00 | 0.00 | 72 | 1016.3 |
| 20260905132224 | 28 | 295 | 0.0 | 0.0 | 0.00 | 0.00 | 0.00 | 73 | 1016.4 |
| 20260905132118 | 28 | 295 | 0.0 | 0.0 | 0.00 | 0.00 | 0.00 | 74 | 1016.4 |
| 20260905132018 | 28 | 294 | 0.0 | 0.0 | 0.00 | 0.00 | 0.00 | 75 | 1016.3 |
| 20260905131915 | 28 | 294 | 0.0 | 0.0 | 0.00 | 0.00 | 0.00 | 75 | 1016.4 |
| 20260905131816 | 28 | 294 | 0.0 | 0.0 | 0.00 | 0.00 | 0.00 | 74 | 1016.3 |
| 20260905131713 | 28 | 294 | 0.0 | 0.0 | 0.00 | 0.00 | 0.00 | 74 | 1016.4 |
| 20260905131610 | 28 | 294 | 0.0 | 0.0 | 0.00 | 0.00 | 0.00 | 73 | 1016.4 |
| 20260905131508 | 28 | 294 | 0.0 | 0.0 | 0.00 | 0.00 | 0.00 | 73 | 1016.4 |
| 20260905131407 | 28 | 294 | 0.0 | 0.0 | 0.00 | 0.00 | 0.00 | 73 | 1016.4 |
| 20260905131309 | 28 | 294 | 0.0 | 0.0 | 0.00 | 0.00 | 0.00 | 74 | 1016.4 |
| 20260905131208 | 28 | 294 | 0.0 | 0.0 | 0.00 | 0.00 | 0.00 | 74 | 1016.4 |
| 20260905131103 | 28 | 294 | 0.0 | 0.0 | 0.00 | 0.00 | 0.00 | 75 | 1016.4 |
| 20260905131005 | 28 | 293 | 0.0 | 0.0 | 0.00 | 0.00 | 0.00 | 75 | 1016.4 |
| 20260905130903 | 28 | 293 | 0.0 | 0.0 | 0.00 | 0.00 | 0.00 | 75 | 1016.5 |
| 20260905130802 | 27 | 293 | 0.0 | 0.0 | 0.00 | 0.00 | 0.00 | 75 | 1016.4 |
| 20260905130701 | 27 | 293 | 0.0 | 0.0 | 0.00 | 0.00 | 0.00 | 74 | 1016.4 |
| 20260905130556 | 27 | 292 | 0.0 | 0.0 | 0.00 | 0.00 | 0.00 | 74 | 1016.4 |
| 20260905130455 | 27 | 292 | 0.0 | 0.0 | 0.00 | 0.00 | 0.00 | 75 | 1016.5 |
| 20260905130355 | 27 | 331 | 0.0 | 0.0 | 0.00 | 0.00 | 0.00 | 76 | 1016.4 |
| 20260905130253 | 27 | 331 | 0.0 | 0.0 | 0.00 | 0.00 | 0.00 | 74 | 1016.4 |
| 20260905130151 | 27 | 335 | 0.0 | 0.0 | 0.00 | 0.00 | 0.00 | 75 | 1016.5 |
| 20260905130052 | 27 | 336 | 0.0 | 0.0 | 0.00 | 0.00 | 0.00 | 75 | 1016.5 |
| 20260905125948 | 27 | 288 | 0.0 | 0.0 | 0.00 | 0.00 | 0.00 | 76 | 1016.5 |
| 20260905125848 | 27 | 321 | 0.0 | 0.0 | 0.00 | 0.00 | 0.00 | 75 | 1016.4 |
| 20260905125748 | 27 | 321 | 0.0 | 0.0 | 0.00 | 0.00 | 0.00 | 76 | 1016.5 |
| 20260905125645 | 27 | 321 | 0.0 | 0.0 | 0.00 | 0.00 | 0.00 | 76 | 1016.4 |
| 20260905125542 | 27 | 321 | 0.0 | 0.0 | 0.00 | 0.00 | 0.00 | 74 | 1016.4 |
| 20260905125439 | 27 | 292 | 0.0 | 0.0 | 0.00 | 0.00 | 0.00 | 75 | 1016.4 |
| 20260905125340 | 27 | 292 | 0.0 | 0.0 | 0.00 | 0.00 | 0.00 | 73 | 1016.5 |
| 20260905125238 | 27 | 292 | 0.0 | 0.0 | 0.00 | 0.00 | 0.00 | 75 | 1016.5 |
| 20260905125140 | 27 | 292 | 0.0 | 0.0 | 0.00 | 0.00 | 0.00 | 75 | 1016.4 |
| 20260905125032 | 27 | 292 | 0.0 | 1.6 | 0.00 | 0.00 | 0.00 | 74 | 1016.4 |
| 20260905124933 | 27 | 292 | 0.0 | 6.4 | 0.00 | 0.00 | 0.00 | 74 | 1016.5 |
| 20260905124831 | 27 | 321 | 0.0 | 6.4 | 0.00 | 0.00 | 0.00 | 75 | 1016.5 |
| 20260905124732 | 27 | 295 | 1.6 | 6.4 | 0.00 | 0.00 | 0.00 | 75 | 1016.5 |
| 20260905124630 | 27 | 295 | 1.6 | 6.4 | 0.00 | 0.00 | 0.00 | 75 | 1016.5 |
| 20260905124529 | 27 | 320 | 1.6 | 6.4 | 0.00 | 0.00 | 0.00 | 75 | 1016.5 |
| 20260905124427 | 27 | 324 | 1.6 | 6.4 | 0.00 | 0.00 | 0.00 | 75 | 1016.5 |
| 20260905124326 | 27 | 268 | 1.6 | 6.4 | 0.00 | 0.00 | 0.00 | 74 | 1016.5 |
| 20260905124225 | 27 | 268 | 1.6 | 6.4 | 0.00 | 0.00 | 0.00 | 75 | 1016.5 |
| 20260905124124 | 27 | 304 | 3.2 | 6.4 | 0.00 | 0.00 | 0.00 | 74 | 1016.5 |
| 20260905124018 | 27 | 304 | 3.2 | 6.4 | 0.00 | 0.00 | 0.00 | 75 | 1016.4 |
| 20260905123917 | 27 | 284 | 3.2 | 8.0 | 0.00 | 0.00 | 0.00 | 75 | 1016.4 |
| 20260905123819 | 27 | 284 | 3.2 | 11.3 | 0.00 | 0.00 | 0.00 | 75 | 1016.4 |
| 20260905123717 | 27 | 288 | 3.2 | 11.3 | 0.00 | 0.00 | 0.00 | 76 | 1016.5 |
| 20260905123618 | 27 | 295 | 4.8 | 11.3 | 0.00 | 0.00 | 0.00 | 76 | 1016.4 |
| 20260905123508 | 27 | 295 | 4.8 | 11.3 | 0.00 | 0.00 | 0.00 | 75 | 1016.4 |
| 20260905123409 | 27 | 295 | 4.8 | 11.3 | 0.00 | 0.00 | 0.00 | 75 | 1016.4 |
| 20260905123308 | 27 | 306 | 4.8 | 11.3 | 0.00 | 0.00 | 0.00 | 76 | 1016.5 |
| 20260905123207 | 27 | 307 | 6.4 | 11.3 | 0.00 | 0.00 | 0.00 | 75 | 1016.5 |
| 20260905123107 | 27 | 308 | 6.4 | 11.3 | 0.00 | 0.00 | 0.00 | 75 | 1016.4 |
| 20260905123005 | 27 | 302 | 6.4 | 11.3 | 0.00 | 0.00 | 0.00 | 75 | 1016.3 |
| 20260905122901 | 26 | 302 | 6.4 | 11.3 | 0.00 | 0.00 | 0.00 | 76 | 1016.4 |
| 20260905122801 | 26 | 302 | 6.4 | 8.0 | 0.00 | 0.00 | 0.00 | 76 | 1016.4 |
| 20260905122703 | 26 | 302 | 6.4 | 8.0 | 0.00 | 0.00 | 0.00 | 75 | 1016.3 |
| 20260905122602 | 26 | 290 | 6.4 | 8.0 | 0.00 | 0.00 | 0.00 | 75 | 1016.4 |
| 20260905122459 | 26 | 316 | 4.8 | 8.0 | 0.00 | 0.00 | 0.00 | 74 | 1016.4 |
| 20260905122359 | 26 | 308 | 4.8 | 8.0 | 0.00 | 0.00 | 0.00 | 75 | 1016.4 |
| 20260905122259 | 26 | 299 | 4.8 | 8.0 | 0.00 | 0.00 | 0.00 | 75 | 1016.5 |
| 20260905122158 | 26 | 299 | 4.8 | 9.7 | 0.00 | 0.00 | 0.00 | 76 | 1016.4 |
| 20260905122056 | 26 | 299 | 3.2 | 9.7 | 0.00 | 0.00 | 0.00 | 75 | 1016.5 |
| 20260905121949 | 26 | 298 | 3.2 | 9.7 | 0.00 | 0.00 | 0.00 | 76 | 1016.4 |
| 20260905121850 | 26 | 298 | 3.2 | 9.7 | 0.00 | 0.00 | 0.00 | 75 | 1016.5 |
| 20260905121748 | 26 | 298 | 3.2 | 9.7 | 0.00 | 0.00 | 0.00 | 75 | 1016.5 |
| 20260905121647 | 26 | 295 | 3.2 | 9.7 | 0.00 | 0.00 | 0.00 | 75 | 1016.4 |
| 20260905121546 | 26 | 295 | 3.2 | 11.3 | 0.00 | 0.00 | 0.00 | 75 | 1016.5 |
| 20260905121440 | 26 | 306 | 3.2 | 11.3 | 0.00 | 0.00 | 0.00 | 75 | 1016.5 |
| 20260905121339 | 26 | 315 | 4.8 | 11.3 | 0.00 | 0.00 | 0.00 | 76 | 1016.5 |
| 20260905121240 | 26 | 324 | 4.8 | 11.3 | 0.00 | 0.00 | 0.00 | 75 | 1016.4 |
| 20260905121140 | 26 | 315 | 4.8 | 12.9 | 0.00 | 0.00 | 0.00 | 75 | 1016.5 |
| 20260905121040 | 26 | 319 | 6.4 | 12.9 | 0.00 | 0.00 | 0.00 | 76 | 1016.4 |
| 20260905120936 | 26 | 325 | 6.4 | 12.9 | 0.00 | 0.00 | 0.00 | 76 | 1016.4 |
| 20260905120836 | 26 | 328 | 6.4 | 12.9 | 0.00 | 0.00 | 0.00 | 75 | 1016.3 |
| 20260905120734 | 26 | 294 | 6.4 | 12.9 | 0.00 | 0.00 | 0.00 | 76 | 1016.3 |
| 20260905120635 | 26 | 308 | 6.4 | 12.9 | 0.00 | 0.00 | 0.00 | 76 | 1016.4 |
| 20260905120533 | 26 | 311 | 6.4 | 12.9 | 0.00 | 0.00 | 0.00 | 76 | 1016.4 |
| 20260905120426 | 26 | 306 | 6.4 | 12.9 | 0.00 | 0.00 | 0.00 | 76 | 1016.5 |
| 20260905120324 | 26 | 288 | 6.4 | 12.9 | 0.00 | 0.00 | 0.00 | 77 | 1016.4 |
| 20260905120223 | 26 | 282 | 6.4 | 12.9 | 0.00 | 0.00 | 0.00 | 76 | 1016.5 |
| 20260905120123 | 26 | 306 | 4.8 | 12.9 | 0.00 | 0.00 | 0.00 | 77 | 1016.4 |
| 20260905120023 | 26 | 302 | 4.8 | 8.0 | 0.00 | 0.00 | 0.00 | 77 | 1016.5 |
| 20260905115921 | 26 | 301 | 4.8 | 8.0 | 0.00 | 0.00 | 0.00 | 77 | 1016.4 |
| 20260905115822 | 25 | 301 | 4.8 | 8.0 | 0.00 | 0.00 | 0.00 | 78 | 1016.5 |
| 20260905115719 | 25 | 303 | 4.8 | 8.0 | 0.00 | 0.00 | 0.00 | 78 | 1016.4 |
| 20260905115620 | 25 | 303 | 3.2 | 8.0 | 0.00 | 0.00 | 0.00 | 77 | 1016.3 |
| 20260905115517 | 25 | 298 | 3.2 | 8.0 | 0.00 | 0.00 | 0.00 | 78 | 1016.2 |
| 20260905115415 | 25 | 298 | 3.2 | 8.0 | 0.00 | 0.00 | 0.00 | 78 | 1016.3 |
| 20260905115314 | 25 | 293 | 3.2 | 8.0 | 0.00 | 0.00 | 0.00 | 78 | 1016.3 |
| 20260905115215 | 25 | 293 | 1.6 | 8.0 | 0.00 | 0.00 | 0.00 | 78 | 1016.3 |
| 20260905115114 | 25 | 280 | 1.6 | 6.4 | 0.00 | 0.00 | 0.00 | 78 | 1016.3 |
| 20260905115011 | 25 | 280 | 0.0 | 6.4 | 0.00 | 0.00 | 0.00 | 78 | 1016.3 |
| 20260905114906 | 25 | 255 | 0.0 | 4.8 | 0.00 | 0.00 | 0.00 | 79 | 1016.3 |
| 20260905114806 | 25 | 255 | 0.0 | 3.2 | 0.00 | 0.00 | 0.00 | 79 | 1016.3 |
| 20260905114704 | 25 | 255 | 0.0 | 3.2 | 0.00 | 0.00 | 0.00 | 79 | 1016.3 |
| 20260905114604 | 25 | 254 | 0.0 | 3.2 | 0.00 | 0.00 | 0.00 | 79 | 1016.2 |
| 20260905114502 | 25 | 254 | 0.0 | 3.2 | 0.00 | 0.00 | 0.00 | 79 | 1016.2 |
| 20260905114359 | 25 | 254 | 0.0 | 3.2 | 0.00 | 0.00 | 0.00 | 79 | 1016.2 |
| 20260905114300 | 25 | 267 | 0.0 | 0.0 | 0.00 | 0.00 | 0.00 | 79 | 1016.2 |
| 20260905114200 | 25 | 267 | 0.0 | 0.0 | 0.00 | 0.00 | 0.00 | 79 | 1016.2 |
| 20260905114058 | 25 | 267 | 0.0 | 0.0 | 0.00 | 0.00 | 0.00 | 80 | 1016.1 |
| 20260905113956 | 25 | 271 | 0.0 | 0.0 | 0.00 | 0.00 | 0.00 | 80 | 1016.1 |
| 20260905113855 | 25 | 271 | 0.0 | 0.0 | 0.00 | 0.00 | 0.00 | 80 | 1016.1 |
| 20260905113754 | 25 | 271 | 0.0 | 0.0 | 0.00 | 0.00 | 0.00 | 80 | 1016.2 |
| 20260905113651 | 25 | 271 | 0.0 | 0.0 | 0.00 | 0.00 | 0.00 | 80 | 1016.1 |
| 20260905113552 | 25 | 271 | 0.0 | 0.0 | 0.00 | 0.00 | 0.00 | 80 | 1016.2 |
| 20260905113450 | 25 | 271 | 0.0 | 0.0 | 0.00 | 0.00 | 0.00 | 80 | 1016.1 |
| 20260905113345 | 25 | 271 | 0.0 | 0.0 | 0.00 | 0.00 | 0.00 | 80 | 1016.1 |
| 20260905113245 | 25 | 271 | 0.0 | 0.0 | 0.00 | 0.00 | 0.00 | 81 | 1016.1 |
| 20260905113141 | 25 | 271 | 0.0 | 0.0 | 0.00 | 0.00 | 0.00 | 81 | 1016.0 |
| 20260905113040 | 25 | 271 | 0.0 | 0.0 | 0.00 | 0.00 | 0.00 | 80 | 1016.0 |
| 20260905112940 | 25 | 271 | 0.0 | 0.0 | 0.00 | 0.00 | 0.00 | 80 | 1016.0 |
| 20260905112839 | 25 | 271 | 0.0 | 0.0 | 0.00 | 0.00 | 0.00 | 80 | 1016.0 |
| 20260905112738 | 25 | 271 | 0.0 | 0.0 | 0.00 | 0.00 | 0.00 | 80 | 1016.0 |
| 20260905112638 | 25 | 271 | 0.0 | 0.0 | 0.00 | 0.00 | 0.00 | 80 | 1015.9 |
| 20260905112536 | 25 | 271 | 0.0 | 0.0 | 0.00 | 0.00 | 0.00 | 80 | 1016.0 |
| 20260905112434 | 25 | 271 | 0.0 | 0.0 | 0.00 | 0.00 | 0.00 | 81 | 1016.0 |
| 20260905112330 | 24 | 271 | 0.0 | 0.0 | 0.00 | 0.00 | 0.00 | 81 | 1015.9 |
| 20260905112230 | 24 | 271 | 0.0 | 0.0 | 0.00 | 0.00 | 0.00 | 81 | 1015.9 |
| 20260905112128 | 24 | 271 | 0.0 | 0.0 | 0.00 | 0.00 | 0.00 | 81 | 1015.8 |
| 20260905112030 | 24 | 271 | 0.0 | 0.0 | 0.00 | 0.00 | 0.00 | 81 | 1015.8 |
| 20260905111928 | 24 | 271 | 0.0 | 0.0 | 0.00 | 0.00 | 0.00 | 81 | 1015.9 |
| 20260905111819 | 24 | 271 | 0.0 | 0.0 | 0.00 | 0.00 | 0.00 | 80 | 1015.9 |
| 20260905111717 | 24 | 271 | 0.0 | 0.0 | 0.00 | 0.00 | 0.00 | 80 | 1015.8 |
| 20260905111617 | 24 | 271 | 0.0 | 0.0 | 0.00 | 0.00 | 0.00 | 81 | 1015.8 |
| 20260905111518 | 24 | 271 | 0.0 | 0.0 | 0.00 | 0.00 | 0.00 | 81 | 1015.8 |
| 20260905111418 | 24 | 271 | 0.0 | 0.0 | 0.00 | 0.00 | 0.00 | 81 | 1015.9 |
| 20260905111313 | 24 | 271 | 0.0 | 0.0 | 0.00 | 0.00 | 0.00 | 81 | 1015.8 |
| 20260905111211 | 24 | 271 | 0.0 | 0.0 | 0.00 | 0.00 | 0.00 | 81 | 1015.8 |
| 20260905111112 | 25 | 271 | 0.0 | 0.0 | 0.00 | 0.00 | 0.00 | 81 | 1015.8 |
| 20260905111010 | 24 | 271 | 0.0 | 0.0 | 0.00 | 0.00 | 0.00 | 80 | 1015.9 |
| 20260905110911 | 25 | 271 | 0.0 | 0.0 | 0.00 | 0.00 | 0.00 | 80 | 1015.9 |
| 20260905110806 | 25 | 271 | 0.0 | 0.0 | 0.00 | 0.00 | 0.00 | 80 | 1015.9 |
| 20260905110706 | 25 | 271 | 0.0 | 0.0 | 0.00 | 0.00 | 0.00 | 80 | 1015.8 |
| 20260905110606 | 25 | 271 | 0.0 | 0.0 | 0.00 | 0.00 | 0.00 | 80 | 1015.9 |
| 20260905110505 | 25 | 271 | 0.0 | 0.0 | 0.00 | 0.00 | 0.00 | 80 | 1015.9 |
| 20260905110406 | 25 | 271 | 0.0 | 0.0 | 0.00 | 0.00 | 0.00 | 80 | 1015.7 |
| 20260905110257 | 25 | 271 | 0.0 | 0.0 | 0.00 | 0.00 | 0.00 | 80 | 1015.7 |
| 20260905110155 | 25 | 271 | 0.0 | 0.0 | 0.00 | 0.00 | 0.00 | 80 | 1015.7 |
| 20260905110054 | 25 | 271 | 0.0 | 0.0 | 0.00 | 0.00 | 0.00 | 80 | 1015.7 |
| 20260905105956 | 25 | 271 | 0.0 | 0.0 | 0.00 | 0.00 | 0.00 | 80 | 1015.7 |
| 20260905105856 | 25 | 271 | 0.0 | 0.0 | 0.00 | 0.00 | 0.00 | 80 | 1015.7 |
| 20260905105754 | 25 | 271 | 0.0 | 0.0 | 0.00 | 0.00 | 0.00 | 80 | 1015.6 |
| 20260905105654 | 25 | 271 | 0.0 | 0.0 | 0.00 | 0.00 | 0.00 | 80 | 1015.6 |
| 20260905105553 | 25 | 271 | 0.0 | 0.0 | 0.00 | 0.00 | 0.00 | 80 | 1015.7 |
| 20260905105451 | 25 | 272 | 0.0 | 0.0 | 0.00 | 0.00 | 0.00 | 80 | 1015.6 |
| 20260905105350 | 25 | 272 | 0.0 | 0.0 | 0.00 | 0.00 | 0.00 | 80 | 1015.6 |
| 20260905105250 | 25 | 272 | 0.0 | 0.0 | 0.00 | 0.00 | 0.00 | 79 | 1015.6 |
| 20260905105147 | 25 | 272 | 0.0 | 0.0 | 0.00 | 0.00 | 0.00 | 79 | 1015.6 |
| 20260905105047 | 25 | 272 | 0.0 | 0.0 | 0.00 | 0.00 | 0.00 | 79 | 1015.6 |
| 20260905104945 | 25 | 272 | 0.0 | 0.0 | 0.00 | 0.00 | 0.00 | 79 | 1015.7 |
| 20260905104844 | 25 | 272 | 0.0 | 0.0 | 0.00 | 0.00 | 0.00 | 79 | 1015.7 |
| 20260905104738 | 25 | 272 | 0.0 | 0.0 | 0.00 | 0.00 | 0.00 | 79 | 1015.6 |
| 20260905104637 | 25 | 272 | 0.0 | 0.0 | 0.00 | 0.00 | 0.00 | 79 | 1015.6 |
| 20260905104538 | 25 | 272 | 0.0 | 0.0 | 0.00 | 0.00 | 0.00 | 79 | 1015.6 |
| 20260905104436 | 25 | 272 | 0.0 | 0.0 | 0.00 | 0.00 | 0.00 | 79 | 1015.6 |
| 20260905104333 | 25 | 272 | 0.0 | 0.0 | 0.00 | 0.00 | 0.00 | 79 | 1015.6 |
| 20260905104235 | 25 | 272 | 0.0 | 0.0 | 0.00 | 0.00 | 0.00 | 79 | 1015.6 |
| 20260905104131 | 25 | 272 | 0.0 | 0.0 | 0.00 | 0.00 | 0.00 | 79 | 1015.6 |
| 20260905104031 | 25 | 272 | 0.0 | 0.0 | 0.00 | 0.00 | 0.00 | 78 | 1015.6 |
| 20260905103930 | 25 | 272 | 0.0 | 0.0 | 0.00 | 0.00 | 0.00 | 79 | 1015.6 |
| 20260905103828 | 25 | 272 | 0.0 | 0.0 | 0.00 | 0.00 | 0.00 | 78 | 1015.5 |
| 20260905103728 | 25 | 272 | 0.0 | 0.0 | 0.00 | 0.00 | 0.00 | 78 | 1015.5 |
| 20260905103626 | 25 | 272 | 0.0 | 0.0 | 0.00 | 0.00 | 0.00 | 78 | 1015.5 |
| 20260905103524 | 25 | 272 | 0.0 | 0.0 | 0.00 | 0.00 | 0.00 | 78 | 1015.6 |
| 20260905103424 | 25 | 272 | 0.0 | 0.0 | 0.00 | 0.00 | 0.00 | 78 | 1015.6 |
| 20260905103322 | 25 | 272 | 0.0 | 0.0 | 0.00 | 0.00 | 0.00 | 78 | 1015.6 |
| 20260905103216 | 25 | 272 | 0.0 | 0.0 | 0.00 | 0.00 | 0.00 | 78 | 1015.6 |
| 20260905103115 | 25 | 272 | 0.0 | 0.0 | 0.00 | 0.00 | 0.00 | 78 | 1015.5 |
| 20260905103015 | 25 | 272 | 0.0 | 0.0 | 0.00 | 0.00 | 0.00 | 78 | 1015.6 |
| 20260905102913 | 25 | 272 | 0.0 | 0.0 | 0.00 | 0.00 | 0.00 | 78 | 1015.5 |
| 20260905102811 | 25 | 272 | 0.0 | 0.0 | 0.00 | 0.00 | 0.00 | 78 | 1015.6 |
| 20260905102705 | 25 | 271 | 0.0 | 0.0 | 0.00 | 0.00 | 0.00 | 78 | 1015.5 |
| 20260905102605 | 25 | 271 | 0.0 | 0.0 | 0.00 | 0.00 | 0.00 | 78 | 1015.6 |
| 20260905102505 | 25 | 271 | 0.0 | 0.0 | 0.00 | 0.00 | 0.00 | 78 | 1015.6 |
| 20260905102404 | 25 | 271 | 0.0 | 0.0 | 0.00 | 0.00 | 0.00 | 78 | 1015.6 |
| 20260905102306 | 25 | 271 | 0.0 | 0.0 | 0.00 | 0.00 | 0.00 | 78 | 1015.6 |
| 20260905102202 | 25 | 271 | 0.0 | 0.0 | 0.00 | 0.00 | 0.00 | 78 | 1015.6 |
| 20260905102102 | 25 | 271 | 0.0 | 0.0 | 0.00 | 0.00 | 0.00 | 78 | 1015.7 |
| 20260905102003 | 25 | 270 | 0.0 | 0.0 | 0.00 | 0.00 | 0.00 | 78 | 1015.7 |
| 20260905101902 | 25 | 271 | 0.0 | 0.0 | 0.00 | 0.00 | 0.00 | 78 | 1015.6 |
| 20260905101800 | 25 | 271 | 0.0 | 0.0 | 0.00 | 0.00 | 0.00 | 78 | 1015.7 |
| 20260905101654 | 25 | 271 | 0.0 | 0.0 | 0.00 | 0.00 | 0.00 | 78 | 1015.6 |
| 20260905101553 | 25 | 271 | 0.0 | 0.0 | 0.00 | 0.00 | 0.00 | 78 | 1015.6 |
| 20260905101454 | 25 | 271 | 0.0 | 0.0 | 0.00 | 0.00 | 0.00 | 78 | 1015.6 |
| 20260905101353 | 25 | 271 | 0.0 | 0.0 | 0.00 | 0.00 | 0.00 | 78 | 1015.6 |
| 20260905101249 | 25 | 271 | 0.0 | 0.0 | 0.00 | 0.00 | 0.00 | 78 | 1015.6 |
| 20260905101150 | 25 | 271 | 0.0 | 0.0 | 0.00 | 0.00 | 0.00 | 78 | 1015.6 |
| 20260905101047 | 25 | 271 | 0.0 | 0.0 | 0.00 | 0.00 | 0.00 | 78 | 1015.6 |
| 20260905100948 | 25 | 270 | 0.0 | 0.0 | 0.00 | 0.00 | 0.00 | 78 | 1015.6 |
| 20260905100846 | 25 | 270 | 0.0 | 0.0 | 0.00 | 0.00 | 0.00 | 78 | 1015.6 |
| 20260905100744 | 25 | 270 | 0.0 | 0.0 | 0.00 | 0.00 | 0.00 | 78 | 1015.5 |
| 20260905100638 | 25 | 293 | 0.0 | 0.0 | 0.00 | 0.00 | 0.00 | 78 | 1015.6 |
| 20260905100540 | 25 | 294 | 0.0 | 0.0 | 0.00 | 0.00 | 0.00 | 78 | 1015.5 |
| 20260905100439 | 25 | 259 | 0.0 | 0.0 | 0.00 | 0.00 | 0.00 | 78 | 1015.6 |
| 20260905100339 | 25 | 272 | 0.0 | 0.0 | 0.00 | 0.00 | 0.00 | 78 | 1015.5 |
| 20260905100237 | 25 | 272 | 0.0 | 0.0 | 0.00 | 0.00 | 0.00 | 78 | 1015.6 |
| 20260905100132 | 25 | 274 | 0.0 | 0.0 | 0.00 | 0.00 | 0.00 | 78 | 1015.5 |
| 20260905100031 | 25 | 274 | 0.0 | 0.0 | 0.00 | 0.00 | 0.00 | 78 | 1015.5 |
| 20260905095932 | 25 | 274 | 0.0 | 0.0 | 0.00 | 0.00 | 0.00 | 79 | 1015.5 |
| 20260905095830 | 25 | 274 | 0.0 | 0.0 | 0.00 | 0.00 | 0.00 | 78 | 1015.5 |
| 20260905095728 | 25 | 274 | 0.0 | 0.0 | 0.00 | 0.00 | 0.00 | 78 | 1015.5 |
| 20260905095627 | 25 | 275 | 0.0 | 0.0 | 0.00 | 0.00 | 0.00 | 79 | 1015.5 |
| 20260905095525 | 25 | 274 | 0.0 | 0.0 | 0.00 | 0.00 | 0.00 | 79 | 1015.4 |
| 20260905095426 | 25 | 275 | 0.0 | 0.0 | 0.00 | 0.00 | 0.00 | 79 | 1015.5 |
| 20260905095324 | 25 | 275 | 0.0 | 0.0 | 0.00 | 0.00 | 0.00 | 79 | 1015.5 |
| 20260905095222 | 25 | 275 | 0.0 | 0.0 | 0.00 | 0.00 | 0.00 | 79 | 1015.5 |
| 20260905095122 | 25 | 275 | 0.0 | 0.0 | 0.00 | 0.00 | 0.00 | 79 | 1015.5 |
| 20260905095019 | 25 | 275 | 0.0 | 0.0 | 0.00 | 0.00 | 0.00 | 79 | 1015.4 |
| 20260905094919 | 25 | 275 | 0.0 | 0.0 | 0.00 | 0.00 | 0.00 | 79 | 1015.4 |
| 20260905094817 | 25 | 274 | 0.0 | 0.0 | 0.00 | 0.00 | 0.00 | 79 | 1015.5 |
| 20260905094716 | 25 | 274 | 0.0 | 0.0 | 0.00 | 0.00 | 0.00 | 79 | 1015.4 |
| 20260905094604 | 25 | 274 | 0.0 | 0.0 | 0.00 | 0.00 | 0.00 | 79 | 1015.5 |
| 20260905094504 | 25 | 274 | 0.0 | 0.0 | 0.00 | 0.00 | 0.00 | 79 | 1015.4 |
| 20260905094405 | 25 | 274 | 0.0 | 0.0 | 0.00 | 0.00 | 0.00 | 79 | 1015.5 |
| 20260905094305 | 25 | 281 | 0.0 | 0.0 | 0.00 | 0.00 | 0.00 | 79 | 1015.5 |
| 20260905094205 | 25 | 281 | 0.0 | 0.0 | 0.00 | 0.00 | 0.00 | 79 | 1015.3 |
| 20260905094102 | 25 | 279 | 0.0 | 0.0 | 0.00 | 0.00 | 0.00 | 79 | 1015.4 |
| 20260905094000 | 25 | 279 | 0.0 | 0.0 | 0.00 | 0.00 | 0.00 | 79 | 1015.3 |
| 20260905093902 | 25 | 279 | 0.0 | 0.0 | 0.00 | 0.00 | 0.00 | 80 | 1015.3 |
| 20260905093801 | 25 | 280 | 0.0 | 0.0 | 0.00 | 0.00 | 0.00 | 80 | 1015.3 |
| 20260905093700 | 25 | 280 | 0.0 | 0.0 | 0.00 | 0.00 | 0.00 | 80 | 1015.4 |
| 20260905093559 | 25 | 280 | 0.0 | 0.0 | 0.00 | 0.00 | 0.00 | 80 | 1015.4 |
| 20260905093458 | 25 | 280 | 0.0 | 0.0 | 0.00 | 0.00 | 0.00 | 80 | 1015.3 |
| 20260905093357 | 25 | 280 | 0.0 | 0.0 | 0.00 | 0.00 | 0.00 | 80 | 1015.3 |
| 20260905093255 | 25 | 280 | 0.0 | 0.0 | 0.00 | 0.00 | 0.00 | 80 | 1015.3 |
| 20260905093154 | 25 | 280 | 0.0 | 0.0 | 0.00 | 0.00 | 0.00 | 80 | 1015.4 |
| 20260905093047 | 25 | 280 | 0.0 | 0.0 | 0.00 | 0.00 | 0.00 | 80 | 1015.4 |
| 20260905092947 | 25 | 280 | 0.0 | 0.0 | 0.00 | 0.00 | 0.00 | 80 | 1015.3 |
| 20260905092848 | 25 | 280 | 0.0 | 0.0 | 0.00 | 0.00 | 0.00 | 80 | 1015.3 |
| 20260905092745 | 25 | 280 | 0.0 | 0.0 | 0.00 | 0.00 | 0.00 | 80 | 1015.3 |
| 20260905092643 | 25 | 280 | 0.0 | 0.0 | 0.00 | 0.00 | 0.00 | 80 | 1015.3 |
| 20260905092542 | 25 | 280 | 0.0 | 0.0 | 0.00 | 0.00 | 0.00 | 80 | 1015.1 |
| 20260905092442 | 25 | 280 | 0.0 | 0.0 | 0.00 | 0.00 | 0.00 | 80 | 1015.3 |
| 20260905092342 | 25 | 280 | 0.0 | 0.0 | 0.00 | 0.00 | 0.00 | 80 | 1015.3 |
| 20260905092239 | 25 | 280 | 0.0 | 0.0 | 0.00 | 0.00 | 0.00 | 80 | 1015.1 |
| 20260905092137 | 25 | 280 | 0.0 | 0.0 | 0.00 | 0.00 | 0.00 | 80 | 1015.1 |
| 20260905092037 | 25 | 280 | 0.0 | 0.0 | 0.00 | 0.00 | 0.00 | 80 | 1015.1 |
| 20260905091936 | 25 | 280 | 0.0 | 0.0 | 0.00 | 0.00 | 0.00 | 80 | 1015.1 |
| 20260905091834 | 25 | 280 | 0.0 | 0.0 | 0.00 | 0.00 | 0.00 | 80 | 1015.1 |
| 20260905091734 | 25 | 280 | 0.0 | 0.0 | 0.00 | 0.00 | 0.00 | 80 | 1015.1 |
| 20260905091632 | 25 | 280 | 0.0 | 0.0 | 0.00 | 0.00 | 0.00 | 80 | 1015.3 |
| 20260905091526 | 25 | 280 | 0.0 | 0.0 | 0.00 | 0.00 | 0.00 | 80 | 1015.3 |
| 20260905091424 | 25 | 280 | 0.0 | 0.0 | 0.00 | 0.00 | 0.00 | 80 | 1015.4 |
| 20260905091324 | 25 | 280 | 0.0 | 0.0 | 0.00 | 0.00 | 0.00 | 80 | 1015.3 |
| 20260905091224 | 25 | 280 | 0.0 | 0.0 | 0.00 | 0.00 | 0.00 | 80 | 1015.3 |
| 20260905091122 | 25 | 280 | 0.0 | 0.0 | 0.00 | 0.00 | 0.00 | 80 | 1015.3 |
| 20260905091022 | 25 | 280 | 0.0 | 0.0 | 0.00 | 0.00 | 0.00 | 80 | 1015.1 |
| 20260905090920 | 25 | 280 | 0.0 | 0.0 | 0.00 | 0.00 | 0.00 | 80 | 1015.3 |
| 20260905090820 | 25 | 280 | 0.0 | 0.0 | 0.00 | 0.00 | 0.00 | 80 | 1015.3 |
| 20260905090717 | 25 | 280 | 0.0 | 0.0 | 0.00 | 0.00 | 0.00 | 80 | 1015.3 |
| 20260905090616 | 25 | 280 | 0.0 | 0.0 | 0.00 | 0.00 | 0.00 | 80 | 1015.3 |
| 20260905090516 | 25 | 279 | 0.0 | 0.0 | 0.00 | 0.00 | 0.00 | 80 | 1015.1 |
| 20260905090412 | 25 | 280 | 0.0 | 0.0 | 0.00 | 0.00 | 0.00 | 80 | 1015.3 |
| 20260905090311 | 25 | 280 | 0.0 | 0.0 | 0.00 | 0.00 | 0.00 | 80 | 1015.3 |
| 20260905090212 | 25 | 280 | 0.0 | 0.0 | 0.00 | 0.00 | 0.00 | 80 | 1015.4 |
| 20260905090109 | 25 | 280 | 0.0 | 0.0 | 0.00 | 0.00 | 0.00 | 80 | 1015.4 |
| 20260905090004 | 25 | 279 | 0.0 | 0.0 | 0.00 | 0.00 | 0.00 | 80 | 1015.4 |
| 20260905085905 | 25 | 279 | 0.0 | 0.0 | 0.00 | 0.00 | 0.00 | 80 | 1015.4 |
| 20260905085805 | 25 | 279 | 0.0 | 0.0 | 0.00 | 0.00 | 0.00 | 80 | 1015.3 |
| 20260905085705 | 25 | 279 | 0.0 | 0.0 | 0.00 | 0.00 | 0.00 | 80 | 1015.3 |
| 20260905085606 | 25 | 279 | 0.0 | 0.0 | 0.00 | 0.00 | 0.00 | 80 | 1015.4 |
| 20260905085506 | 25 | 279 | 0.0 | 0.0 | 0.00 | 0.00 | 0.00 | 80 | 1015.4 |
| 20260905085405 | 25 | 279 | 0.0 | 0.0 | 0.00 | 0.00 | 0.00 | 80 | 1015.4 |
| 20260905085306 | 25 | 279 | 0.0 | 0.0 | 0.00 | 0.00 | 0.00 | 80 | 1015.4 |
| 20260905085202 | 25 | 279 | 0.0 | 0.0 | 0.00 | 0.00 | 0.00 | 80 | 1015.4 |
| 20260905085103 | 25 | 280 | 0.0 | 0.0 | 0.00 | 0.00 | 0.00 | 80 | 1015.4 |
| 20260905085002 | 25 | 280 | 0.0 | 0.0 | 0.00 | 0.00 | 0.00 | 80 | 1015.4 |
| 20260905084902 | 25 | 280 | 0.0 | 0.0 | 0.00 | 0.00 | 0.00 | 80 | 1015.5 |
| 20260905084803 | 25 | 280 | 0.0 | 0.0 | 0.00 | 0.00 | 0.00 | 80 | 1015.6 |
| 20260905084702 | 25 | 280 | 0.0 | 0.0 | 0.00 | 0.00 | 0.00 | 80 | 1015.5 |
| 20260905084601 | 25 | 280 | 0.0 | 0.0 | 0.00 | 0.00 | 0.00 | 80 | 1015.5 |
| 20260905084501 | 25 | 280 | 0.0 | 0.0 | 0.00 | 0.00 | 0.00 | 80 | 1015.6 |
| 20260905084401 | 25 | 280 | 0.0 | 0.0 | 0.00 | 0.00 | 0.00 | 80 | 1015.6 |
| 20260905084256 | 25 | 280 | 0.0 | 0.0 | 0.00 | 0.00 | 0.00 | 80 | 1015.7 |
| 20260905084158 | 25 | 280 | 0.0 | 0.0 | 0.00 | 0.00 | 0.00 | 80 | 1015.6 |
| 20260905084056 | 25 | 280 | 0.0 | 0.0 | 0.00 | 0.00 | 0.00 | 80 | 1015.7 |
| 20260905083958 | 25 | 286 | 0.0 | 0.0 | 0.00 | 0.00 | 0.00 | 80 | 1015.6 |
| 20260905083856 | 25 | 286 | 0.0 | 0.0 | 0.00 | 0.00 | 0.00 | 80 | 1015.6 |
| 20260905083756 | 25 | 286 | 0.0 | 0.0 | 0.00 | 0.00 | 0.00 | 80 | 1015.7 |
| 20260905083652 | 25 | 286 | 0.0 | 0.0 | 0.00 | 0.00 | 0.00 | 80 | 1015.7 |
| 20260905083554 | 25 | 286 | 0.0 | 0.0 | 0.00 | 0.00 | 0.00 | 80 | 1015.7 |
| 20260905083450 | 25 | 286 | 0.0 | 0.0 | 0.00 | 0.00 | 0.00 | 80 | 1015.8 |
| 20260905083350 | 25 | 286 | 0.0 | 0.0 | 0.00 | 0.00 | 0.00 | 80 | 1015.7 |
| 20260905083252 | 25 | 286 | 0.0 | 0.0 | 0.00 | 0.00 | 0.00 | 80 | 1015.7 |
| 20260905083150 | 25 | 286 | 0.0 | 0.0 | 0.00 | 0.00 | 0.00 | 80 | 1015.7 |
| 20260905083052 | 25 | 286 | 0.0 | 0.0 | 0.00 | 0.00 | 0.00 | 80 | 1015.8 |
| 20260905082950 | 25 | 286 | 0.0 | 0.0 | 0.00 | 0.00 | 0.00 | 80 | 1015.8 |
| 20260905082852 | 25 | 286 | 0.0 | 0.0 | 0.00 | 0.00 | 0.00 | 80 | 1015.8 |
| 20260905082750 | 25 | 286 | 0.0 | 0.0 | 0.00 | 0.00 | 0.00 | 80 | 1015.7 |
| 20260905082646 | 25 | 286 | 0.0 | 0.0 | 0.00 | 0.00 | 0.00 | 80 | 1015.8 |
| 20260905082547 | 25 | 286 | 0.0 | 0.0 | 0.00 | 0.00 | 0.00 | 80 | 1015.8 |
| 20260905082445 | 25 | 286 | 0.0 | 0.0 | 0.00 | 0.00 | 0.00 | 80 | 1015.8 |
| 20260905082345 | 25 | 286 | 0.0 | 0.0 | 0.00 | 0.00 | 0.00 | 80 | 1015.8 |
| 20260905082243 | 25 | 286 | 0.0 | 0.0 | 0.00 | 0.00 | 0.00 | 80 | 1015.9 |
| 20260905082142 | 25 | 286 | 0.0 | 0.0 | 0.00 | 0.00 | 0.00 | 80 | 1015.9 |
| 20260905082041 | 25 | 286 | 0.0 | 0.0 | 0.00 | 0.00 | 0.00 | 80 | 1015.8 |
| 20260905081939 | 25 | 286 | 0.0 | 0.0 | 0.00 | 0.00 | 0.00 | 80 | 1015.8 |
| 20260905081838 | 25 | 286 | 0.0 | 0.0 | 0.00 | 0.00 | 0.00 | 80 | 1015.8 |
| 20260905081736 | 25 | 286 | 0.0 | 0.0 | 0.00 | 0.00 | 0.00 | 80 | 1015.8 |
| 20260905081635 | 25 | 286 | 0.0 | 0.0 | 0.00 | 0.00 | 0.00 | 80 | 1015.8 |
| 20260905081534 | 25 | 286 | 0.0 | 0.0 | 0.00 | 0.00 | 0.00 | 80 | 1015.8 |
| 20260905081436 | 25 | 286 | 0.0 | 0.0 | 0.00 | 0.00 | 0.00 | 80 | 1015.8 |
| 20260905081335 | 25 | 286 | 0.0 | 0.0 | 0.00 | 0.00 | 0.00 | 80 | 1015.9 |
| 20260905081234 | 25 | 286 | 0.0 | 0.0 | 0.00 | 0.00 | 0.00 | 80 | 1015.8 |
| 20260905081132 | 25 | 286 | 0.0 | 0.0 | 0.00 | 0.00 | 0.00 | 80 | 1015.8 |
| 20260905081027 | 25 | 286 | 0.0 | 0.0 | 0.00 | 0.00 | 0.00 | 80 | 1015.9 |
| 20260905080927 | 25 | 286 | 0.0 | 0.0 | 0.00 | 0.00 | 0.00 | 80 | 1015.9 |
| 20260905080827 | 25 | 286 | 0.0 | 0.0 | 0.00 | 0.00 | 0.00 | 80 | 1016.0 |
| 20260905080727 | 25 | 286 | 0.0 | 0.0 | 0.00 | 0.00 | 0.00 | 80 | 1016.0 |
| 20260905080626 | 25 | 286 | 0.0 | 0.0 | 0.00 | 0.00 | 0.00 | 80 | 1016.0 |
| 20260905080525 | 25 | 286 | 0.0 | 0.0 | 0.00 | 0.00 | 0.00 | 80 | 1015.9 |
| 20260905080422 | 25 | 286 | 0.0 | 0.0 | 0.00 | 0.00 | 0.00 | 80 | 1016.0 |
| 20260905080322 | 25 | 286 | 0.0 | 0.0 | 0.00 | 0.00 | 0.00 | 80 | 1015.9 |
| 20260905080222 | 25 | 286 | 0.0 | 0.0 | 0.00 | 0.00 | 0.00 | 80 | 1016.0 |
| 20260905080120 | 25 | 286 | 0.0 | 0.0 | 0.00 | 0.00 | 0.00 | 80 | 1016.0 |
| 20260905080021 | 25 | 286 | 0.0 | 0.0 | 0.00 | 0.00 | 0.00 | 80 | 1016.0 |
| 20260905075920 | 25 | 286 | 0.0 | 0.0 | 0.00 | 0.00 | 0.00 | 80 | 1015.9 |
| 20260905075821 | 25 | 286 | 0.0 | 0.0 | 0.00 | 0.00 | 0.00 | 80 | 1015.9 |
| 20260905075720 | 25 | 286 | 0.0 | 0.0 | 0.00 | 0.00 | 0.00 | 80 | 1016.0 |
| 20260905075619 | 25 | 286 | 0.0 | 0.0 | 0.00 | 0.00 | 0.00 | 80 | 1016.1 |
| 20260905075517 | 25 | 286 | 0.0 | 0.0 | 0.00 | 0.00 | 0.00 | 80 | 1016.0 |
| 20260905075415 | 25 | 286 | 0.0 | 0.0 | 0.00 | 0.00 | 0.00 | 80 | 1016.1 |
| 20260905075313 | 24 | 286 | 0.0 | 0.0 | 0.00 | 0.00 | 0.00 | 80 | 1016.1 |
| 20260905075213 | 24 | 286 | 0.0 | 0.0 | 0.00 | 0.00 | 0.00 | 80 | 1016.0 |
| 20260905075112 | 25 | 286 | 0.0 | 0.0 | 0.00 | 0.00 | 0.00 | 80 | 1016.1 |
| 20260905075013 | 25 | 286 | 0.0 | 0.0 | 0.00 | 0.00 | 0.00 | 80 | 1016.1 |
| 20260905074911 | 25 | 286 | 0.0 | 0.0 | 0.00 | 0.00 | 0.00 | 80 | 1016.1 |
| 20260905074812 | 25 | 286 | 0.0 | 0.0 | 0.00 | 0.00 | 0.00 | 80 | 1016.1 |
| 20260905074709 | 24 | 286 | 0.0 | 0.0 | 0.00 | 0.00 | 0.00 | 80 | 1016.1 |
| 20260905074610 | 25 | 286 | 0.0 | 0.0 | 0.00 | 0.00 | 0.00 | 80 | 1016.2 |
| 20260905074507 | 25 | 286 | 0.0 | 0.0 | 0.00 | 0.00 | 0.00 | 80 | 1016.2 |
| 20260905074408 | 25 | 286 | 0.0 | 0.0 | 0.00 | 0.00 | 0.00 | 80 | 1016.1 |
| 20260905074306 | 25 | 286 | 0.0 | 0.0 | 0.00 | 0.00 | 0.00 | 80 | 1016.1 |
| 20260905074207 | 25 | 286 | 0.0 | 0.0 | 0.00 | 0.00 | 0.00 | 80 | 1016.1 |
| 20260905074108 | 25 | 286 | 0.0 | 0.0 | 0.00 | 0.00 | 0.00 | 80 | 1016.1 |
| 20260905074006 | 25 | 286 | 0.0 | 0.0 | 0.00 | 0.00 | 0.00 | 80 | 1016.1 |
| 20260905073907 | 25 | 286 | 0.0 | 0.0 | 0.00 | 0.00 | 0.00 | 80 | 1016.2 |
| 20260905073805 | 25 | 287 | 0.0 | 0.0 | 0.00 | 0.00 | 0.00 | 80 | 1016.2 |
| 20260905073704 | 25 | 287 | 0.0 | 0.0 | 0.00 | 0.00 | 0.00 | 80 | 1016.3 |
| 20260905073605 | 25 | 287 | 0.0 | 0.0 | 0.00 | 0.00 | 0.00 | 80 | 1016.2 |
| 20260905073505 | 25 | 287 | 0.0 | 0.0 | 0.00 | 0.00 | 0.00 | 80 | 1016.2 |
| 20260905073404 | 25 | 287 | 0.0 | 0.0 | 0.00 | 0.00 | 0.00 | 80 | 1016.2 |
| 20260905073305 | 25 | 284 | 0.0 | 0.0 | 0.00 | 0.00 | 0.00 | 80 | 1016.3 |
| 20260905073204 | 25 | 284 | 0.0 | 0.0 | 0.00 | 0.00 | 0.00 | 80 | 1016.3 |
| 20260905073105 | 25 | 281 | 0.0 | 0.0 | 0.00 | 0.00 | 0.00 | 80 | 1016.3 |
| 20260905073007 | 25 | 271 | 0.0 | 0.0 | 0.00 | 0.00 | 0.00 | 80 | 1016.3 |
| 20260905072905 | 25 | 265 | 0.0 | 0.0 | 0.00 | 0.00 | 0.00 | 80 | 1016.3 |
| 20260905072805 | 25 | 259 | 0.0 | 0.0 | 0.00 | 0.00 | 0.00 | 80 | 1016.2 |
| 20260905072705 | 25 | 252 | 0.0 | 0.0 | 0.00 | 0.00 | 0.00 | 80 | 1016.2 |
| 20260905072606 | 25 | 175 | 0.0 | 0.0 | 0.00 | 0.00 | 0.00 | 80 | 1016.3 |
| 20260905072504 | 25 | 175 | 0.0 | 0.0 | 0.00 | 0.00 | 0.00 | 80 | 1016.3 |
| 20260905072406 | 25 | 175 | 0.0 | 0.0 | 0.00 | 0.00 | 0.00 | 80 | 1016.2 |
| 20260905072306 | 25 | 175 | 0.0 | 0.0 | 0.00 | 0.00 | 0.00 | 81 | 1016.2 |
| 20260905072204 | 25 | 175 | 0.0 | 0.0 | 0.00 | 0.00 | 0.00 | 81 | 1016.2 |
| 20260905072104 | 25 | 175 | 0.0 | 0.0 | 0.00 | 0.00 | 0.00 | 81 | 1016.2 |
| 20260905072005 | 25 | 175 | 0.0 | 0.0 | 0.00 | 0.00 | 0.00 | 81 | 1016.2 |
| 20260905071905 | 25 | 175 | 0.0 | 0.0 | 0.00 | 0.00 | 0.00 | 80 | 1016.2 |
| 20260905071806 | 25 | 175 | 0.0 | 0.0 | 0.00 | 0.00 | 0.00 | 80 | 1016.3 |
| 20260905071704 | 25 | 175 | 0.0 | 0.0 | 0.00 | 0.00 | 0.00 | 80 | 1016.3 |
| 20260905071605 | 25 | 175 | 0.0 | 0.0 | 0.00 | 0.00 | 0.00 | 80 | 1016.2 |
| 20260905071506 | 25 | 175 | 0.0 | 0.0 | 0.00 | 0.00 | 0.00 | 80 | 1016.3 |
| 20260905071405 | 25 | 175 | 0.0 | 0.0 | 0.00 | 0.00 | 0.00 | 80 | 1016.3 |
| 20260905071304 | 25 | 175 | 0.0 | 0.0 | 0.00 | 0.00 | 0.00 | 80 | 1016.3 |
| 20260905071205 | 25 | 175 | 0.0 | 0.0 | 0.00 | 0.00 | 0.00 | 80 | 1016.3 |
| 20260905071106 | 25 | 175 | 0.0 | 0.0 | 0.00 | 0.00 | 0.00 | 80 | 1016.3 |
| 20260905071000 | 25 | 175 | 0.0 | 0.0 | 0.00 | 0.00 | 0.00 | 80 | 1016.3 |
| 20260905070901 | 25 | 175 | 0.0 | 0.0 | 0.00 | 0.00 | 0.00 | 80 | 1016.3 |
| 20260905070802 | 25 | 175 | 0.0 | 0.0 | 0.00 | 0.00 | 0.00 | 80 | 1016.4 |
| 20260905070700 | 25 | 175 | 0.0 | 0.0 | 0.00 | 0.00 | 0.00 | 80 | 1016.3 |
| 20260905070602 | 25 | 175 | 0.0 | 0.0 | 0.00 | 0.00 | 0.00 | 80 | 1016.3 |
| 20260905070501 | 25 | 175 | 0.0 | 0.0 | 0.00 | 0.00 | 0.00 | 80 | 1016.3 |
| 20260905070400 | 25 | 175 | 0.0 | 0.0 | 0.00 | 0.00 | 0.00 | 80 | 1016.3 |
| 20260905070301 | 25 | 175 | 0.0 | 0.0 | 0.00 | 0.00 | 0.00 | 80 | 1016.4 |
| 20260905070200 | 25 | 175 | 0.0 | 0.0 | 0.00 | 0.00 | 0.00 | 80 | 1016.4 |
| 20260905070000 | 25 | 175 | 0.0 | 0.0 | 0.00 | 0.00 | 0.00 | 80 | 1016.4 |
| 20260905065900 | 25 | 175 | 0.0 | 0.0 | 0.00 | 0.00 | 0.00 | 80 | 1016.4 |
| 20260905065801 | 25 | 175 | 0.0 | 0.0 | 0.00 | 0.00 | 0.00 | 80 | 1016.4 |
| 20260905065700 | 25 | 175 | 0.0 | 0.0 | 0.00 | 0.00 | 0.00 | 80 | 1016.4 |
| 20260905065601 | 25 | 175 | 0.0 | 0.0 | 0.00 | 0.00 | 0.00 | 80 | 1016.5 |
| 20260905065500 | 25 | 175 | 0.0 | 0.0 | 0.00 | 0.00 | 0.00 | 80 | 1016.4 |
| 20260905065401 | 25 | 175 | 0.0 | 0.0 | 0.00 | 0.00 | 0.00 | 80 | 1016.4 |
| 20260905065302 | 25 | 175 | 0.0 | 0.0 | 0.00 | 0.00 | 0.00 | 80 | 1016.5 |
| 20260905065201 | 25 | 175 | 0.0 | 0.0 | 0.00 | 0.00 | 0.00 | 80 | 1016.5 |
| 20260905065102 | 25 | 175 | 0.0 | 0.0 | 0.00 | 0.00 | 0.00 | 80 | 1016.5 |
| 20260905065000 | 25 | 175 | 0.0 | 0.0 | 0.00 | 0.00 | 0.00 | 80 | 1016.5 |
| 20260905064901 | 25 | 175 | 0.0 | 0.0 | 0.00 | 0.00 | 0.00 | 80 | 1016.5 |
| 20260905064801 | 25 | 175 | 0.0 | 0.0 | 0.00 | 0.00 | 0.00 | 80 | 1016.6 |
| 20260905064702 | 25 | 175 | 0.0 | 0.0 | 0.00 | 0.00 | 0.00 | 80 | 1016.5 |
| 20260905064601 | 25 | 175 | 0.0 | 0.0 | 0.00 | 0.00 | 0.00 | 80 | 1016.5 |
| 20260905064502 | 25 | 175 | 0.0 | 0.0 | 0.00 | 0.00 | 0.00 | 80 | 1016.5 |
| 20260905064401 | 25 | 175 | 0.0 | 0.0 | 0.00 | 0.00 | 0.00 | 80 | 1016.5 |
| 20260905064301 | 25 | 175 | 0.0 | 0.0 | 0.00 | 0.00 | 0.00 | 80 | 1016.6 |
| 20260905064201 | 25 | 175 | 0.0 | 0.0 | 0.00 | 0.00 | 0.00 | 80 | 1016.5 |
| 20260905064100 | 25 | 175 | 0.0 | 0.0 | 0.00 | 0.00 | 0.00 | 80 | 1016.6 |
| 20260905064000 | 25 | 175 | 0.0 | 0.0 | 0.00 | 0.00 | 0.00 | 80 | 1016.6 |
| 20260905063900 | 25 | 175 | 0.0 | 0.0 | 0.00 | 0.00 | 0.00 | 79 | 1016.6 |
| 20260905063802 | 25 | 175 | 0.0 | 0.0 | 0.00 | 0.00 | 0.00 | 79 | 1016.6 |
| 20260905063657 | 25 | 175 | 0.0 | 0.0 | 0.00 | 0.00 | 0.00 | 79 | 1016.7 |
| 20260905063556 | 25 | 175 | 0.0 | 0.0 | 0.00 | 0.00 | 0.00 | 79 | 1016.7 |
| 20260905063457 | 25 | 175 | 0.0 | 0.0 | 0.00 | 0.00 | 0.00 | 79 | 1016.7 |
| 20260905063356 | 25 | 175 | 0.0 | 0.0 | 0.00 | 0.00 | 0.00 | 79 | 1016.7 |
| 20260905063257 | 25 | 175 | 0.0 | 0.0 | 0.00 | 0.00 | 0.00 | 79 | 1016.7 |
| 20260905063158 | 25 | 175 | 0.0 | 0.0 | 0.00 | 0.00 | 0.00 | 79 | 1016.7 |
| 20260905063057 | 25 | 175 | 0.0 | 0.0 | 0.00 | 0.00 | 0.00 | 79 | 1016.9 |
| 20260905062958 | 25 | 175 | 0.0 | 0.0 | 0.00 | 0.00 | 0.00 | 78 | 1016.9 |
| 20260905062857 | 25 | 175 | 0.0 | 0.0 | 0.00 | 0.00 | 0.00 | 78 | 1016.7 |
| 20260905062757 | 25 | 175 | 0.0 | 0.0 | 0.00 | 0.00 | 0.00 | 78 | 1016.9 |
| 20260905062657 | 25 | 175 | 0.0 | 0.0 | 0.00 | 0.00 | 0.00 | 78 | 1016.9 |
| 20260905062558 | 25 | 175 | 0.0 | 0.0 | 0.00 | 0.00 | 0.00 | 78 | 1016.9 |
| 20260905062458 | 25 | 175 | 0.0 | 0.0 | 0.00 | 0.00 | 0.00 | 78 | 1016.9 |
| 20260905062356 | 25 | 175 | 0.0 | 0.0 | 0.00 | 0.00 | 0.00 | 78 | 1016.9 |
| 20260905062257 | 25 | 175 | 0.0 | 0.0 | 0.00 | 0.00 | 0.00 | 78 | 1016.9 |
| 20260905062158 | 25 | 175 | 0.0 | 0.0 | 0.00 | 0.00 | 0.00 | 78 | 1016.9 |
| 20260905062057 | 25 | 175 | 0.0 | 0.0 | 0.00 | 0.00 | 0.00 | 78 | 1017.0 |
| 20260905061958 | 25 | 175 | 0.0 | 0.0 | 0.00 | 0.00 | 0.00 | 78 | 1017.0 |
| 20260905061857 | 25 | 175 | 0.0 | 0.0 | 0.00 | 0.00 | 0.00 | 78 | 1017.0 |
| 20260905061758 | 25 | 175 | 0.0 | 0.0 | 0.00 | 0.00 | 0.00 | 78 | 1017.1 |
| 20260905061656 | 25 | 175 | 0.0 | 0.0 | 0.00 | 0.00 | 0.00 | 78 | 1017.0 |
| 20260905061557 | 25 | 175 | 0.0 | 0.0 | 0.00 | 0.00 | 0.00 | 78 | 1017.7 |
| 20260905061456 | 25 | 175 | 0.0 | 0.0 | 0.00 | 0.00 | 0.00 | 78 | 1017.1 |
| 20260905061357 | 25 | 175 | 0.0 | 0.0 | 0.00 | 0.00 | 0.00 | 78 | 1017.1 |
| 20260905061257 | 25 | 175 | 0.0 | 0.0 | 0.00 | 0.00 | 0.00 | 78 | 1017.2 |
| 20260905061158 | 25 | 175 | 0.0 | 0.0 | 0.00 | 0.00 | 0.00 | 78 | 1017.1 |
| 20260905061057 | 25 | 175 | 0.0 | 0.0 | 0.00 | 0.00 | 0.00 | 78 | 1017.2 |
| 20260905060955 | 25 | 175 | 0.0 | 0.0 | 0.00 | 0.00 | 0.00 | 78 | 1017.2 |
| 20260905060856 | 25 | 175 | 0.0 | 0.0 | 0.00 | 0.00 | 0.00 | 78 | 1017.2 |
| 20260905060755 | 25 | 175 | 0.0 | 0.0 | 0.00 | 0.00 | 0.00 | 78 | 1017.2 |
| 20260905060656 | 25 | 175 | 0.0 | 0.0 | 0.00 | 0.00 | 0.00 | 78 | 1017.1 |
| 20260905060555 | 25 | 175 | 0.0 | 0.0 | 0.00 | 0.00 | 0.00 | 78 | 1017.3 |
| 20260905060457 | 25 | 175 | 0.0 | 0.0 | 0.00 | 0.00 | 0.00 | 78 | 1017.3 |
| 20260905060352 | 25 | 175 | 0.0 | 0.0 | 0.00 | 0.00 | 0.00 | 78 | 1017.2 |
| 20260905060251 | 26 | 175 | 0.0 | 0.0 | 0.00 | 0.00 | 0.00 | 78 | 1017.3 |
| 20260905060152 | 25 | 175 | 0.0 | 0.0 | 0.00 | 0.00 | 0.00 | 78 | 1017.3 |
| 20260905060052 | 25 | 175 | 0.0 | 0.0 | 0.00 | 0.00 | 0.00 | 78 | 1017.3 |
| 20260905055953 | 26 | 175 | 0.0 | 0.0 | 0.00 | 0.00 | 0.00 | 78 | 1017.3 |
| 20260905055851 | 25 | 175 | 0.0 | 0.0 | 0.00 | 0.00 | 0.00 | 78 | 1017.4 |
| 20260905055751 | 25 | 175 | 0.0 | 0.0 | 0.00 | 0.00 | 0.00 | 78 | 1017.3 |
| 20260905055651 | 25 | 175 | 0.0 | 0.0 | 0.00 | 0.00 | 0.00 | 78 | 1017.4 |
| 20260905055551 | 25 | 175 | 0.0 | 0.0 | 0.00 | 0.00 | 0.00 | 78 | 1017.4 |
| 20260905055452 | 25 | 175 | 0.0 | 0.0 | 0.00 | 0.00 | 0.00 | 78 | 1017.4 |
| 20260905055351 | 25 | 175 | 0.0 | 0.0 | 0.00 | 0.00 | 0.00 | 78 | 1017.3 |
| 20260905055252 | 25 | 175 | 0.0 | 0.0 | 0.00 | 0.00 | 0.00 | 78 | 1017.4 |
| 20260905055152 | 25 | 175 | 0.0 | 0.0 | 0.00 | 0.00 | 0.00 | 78 | 1017.4 |
| 20260905055051 | 26 | 175 | 0.0 | 0.0 | 0.00 | 0.00 | 0.00 | 78 | 1017.5 |
| 20260905054953 | 26 | 175 | 0.0 | 0.0 | 0.00 | 0.00 | 0.00 | 78 | 1017.4 |
| 20260905054851 | 25 | 175 | 0.0 | 0.0 | 0.00 | 0.00 | 0.00 | 78 | 1017.5 |
| 20260905054752 | 26 | 175 | 0.0 | 0.0 | 0.00 | 0.00 | 0.00 | 78 | 1017.4 |
| 20260905054650 | 25 | 175 | 0.0 | 0.0 | 0.00 | 0.00 | 0.00 | 78 | 1017.5 |
| 20260905054550 | 25 | 175 | 0.0 | 0.0 | 0.00 | 0.00 | 0.00 | 78 | 1017.5 |
| 20260905054452 | 25 | 175 | 0.0 | 0.0 | 0.00 | 0.00 | 0.00 | 77 | 1017.4 |
| 20260905054351 | 25 | 175 | 0.0 | 0.0 | 0.00 | 0.00 | 0.00 | 77 | 1017.6 |
| 20260905054251 | 25 | 175 | 0.0 | 0.0 | 0.00 | 0.00 | 0.00 | 77 | 1017.5 |
| 20260905054152 | 25 | 175 | 0.0 | 0.0 | 0.00 | 0.00 | 0.00 | 77 | 1017.6 |
| 20260905054052 | 25 | 175 | 0.0 | 0.0 | 0.00 | 0.00 | 0.00 | 77 | 1017.5 |
| 20260905053950 | 25 | 175 | 0.0 | 0.0 | 0.00 | 0.00 | 0.00 | 77 | 1017.6 |
| 20260905053850 | 25 | 175 | 0.0 | 0.0 | 0.00 | 0.00 | 0.00 | 77 | 1017.6 |
| 20260905053751 | 26 | 175 | 0.0 | 0.0 | 0.00 | 0.00 | 0.00 | 77 | 1017.6 |
| 20260905053651 | 25 | 175 | 0.0 | 0.0 | 0.00 | 0.00 | 0.00 | 77 | 1017.5 |
| 20260905053551 | 25 | 175 | 0.0 | 0.0 | 0.00 | 0.00 | 0.00 | 77 | 1017.6 |
| 20260905053451 | 26 | 175 | 0.0 | 0.0 | 0.00 | 0.00 | 0.00 | 77 | 1017.6 |
| 20260905053351 | 25 | 175 | 0.0 | 0.0 | 0.00 | 0.00 | 0.00 | 77 | 1017.6 |
| 20260905053252 | 25 | 175 | 0.0 | 0.0 | 0.00 | 0.00 | 0.00 | 77 | 1017.6 |
| 20260905053153 | 25 | 175 | 0.0 | 0.0 | 0.00 | 0.00 | 0.00 | 77 | 1017.5 |
| 20260905053048 | 26 | 175 | 0.0 | 0.0 | 0.00 | 0.00 | 0.00 | 77 | 1017.6 |
| 20260905052948 | 26 | 175 | 0.0 | 0.0 | 0.00 | 0.00 | 0.00 | 77 | 1017.5 |
| 20260905052848 | 26 | 175 | 0.0 | 0.0 | 0.00 | 0.00 | 0.00 | 77 | 1017.6 |
| 20260905052749 | 26 | 175 | 0.0 | 0.0 | 0.00 | 0.00 | 0.00 | 77 | 1017.6 |
| 20260905052646 | 26 | 175 | 0.0 | 0.0 | 0.00 | 0.00 | 0.00 | 77 | 1017.6 |
| 20260905052547 | 26 | 175 | 0.0 | 0.0 | 0.00 | 0.00 | 0.00 | 77 | 1017.5 |
| 20260905052445 | 26 | 175 | 0.0 | 0.0 | 0.00 | 0.00 | 0.00 | 77 | 1017.6 |
| 20260905052345 | 26 | 175 | 0.0 | 0.0 | 0.00 | 0.00 | 0.00 | 77 | 1017.5 |
| 20260905052245 | 26 | 175 | 0.0 | 0.0 | 0.00 | 0.00 | 0.00 | 77 | 1017.6 |
| 20260905052145 | 26 | 175 | 0.0 | 0.0 | 0.00 | 0.00 | 0.00 | 77 | 1017.6 |
| 20260905052046 | 26 | 175 | 0.0 | 0.0 | 0.00 | 0.00 | 0.00 | 77 | 1017.6 |
| 20260905051944 | 26 | 175 | 0.0 | 0.0 | 0.00 | 0.00 | 0.00 | 77 | 1017.7 |
| 20260905051842 | 26 | 175 | 0.0 | 0.0 | 0.00 | 0.00 | 0.00 | 77 | 1017.6 |
| 20260905051740 | 26 | 175 | 0.0 | 0.0 | 0.00 | 0.00 | 0.00 | 77 | 1017.6 |
| 20260905051639 | 26 | 175 | 0.0 | 0.0 | 0.00 | 0.00 | 0.00 | 77 | 1017.7 |
| 20260905051539 | 26 | 175 | 0.0 | 0.0 | 0.00 | 0.00 | 0.00 | 77 | 1017.7 |
| 20260905051436 | 26 | 175 | 0.0 | 0.0 | 0.00 | 0.00 | 0.00 | 77 | 1017.7 |
| 20260905051333 | 26 | 175 | 0.0 | 0.0 | 0.00 | 0.00 | 0.00 | 77 | 1017.7 |
| 20260905051230 | 26 | 175 | 0.0 | 0.0 | 0.00 | 0.00 | 0.00 | 77 | 1017.7 |
| 20260905051130 | 26 | 175 | 0.0 | 0.0 | 0.00 | 0.00 | 0.00 | 77 | 1017.7 |
| 20260905051029 | 26 | 175 | 0.0 | 0.0 | 0.00 | 0.00 | 0.00 | 77 | 1017.8 |
| 20260905050925 | 26 | 175 | 0.0 | 0.0 | 0.00 | 0.00 | 0.00 | 77 | 1017.6 |
| 20260905050821 | 26 | 175 | 0.0 | 0.0 | 0.00 | 0.00 | 0.00 | 77 | 1017.7 |
| 20260905050718 | 26 | 175 | 0.0 | 0.0 | 0.00 | 0.00 | 0.00 | 77 | 1017.7 |
| 20260905050618 | 26 | 175 | 0.0 | 0.0 | 0.00 | 0.00 | 0.00 | 77 | 1017.7 |
| 20260905050516 | 26 | 175 | 0.0 | 0.0 | 0.00 | 0.00 | 0.00 | 77 | 1017.6 |
| 20260905050412 | 26 | 175 | 0.0 | 0.0 | 0.00 | 0.00 | 0.00 | 77 | 1017.6 |
| 20260905050313 | 26 | 175 | 0.0 | 0.0 | 0.00 | 0.00 | 0.00 | 77 | 1017.7 |
| 20260905050214 | 26 | 175 | 0.0 | 0.0 | 0.00 | 0.00 | 0.00 | 77 | 1017.8 |
| 20260905050112 | 26 | 175 | 0.0 | 0.0 | 0.00 | 0.00 | 0.00 | 77 | 1017.8 |
| 20260905050012 | 26 | 175 | 0.0 | 0.0 | 0.00 | 0.00 | 0.00 | 77 | 1017.8 |
| 20260905045913 | 26 | 175 | 0.0 | 0.0 | 0.00 | 0.00 | 0.00 | 77 | 1017.7 |
| 20260905045807 | 26 | 175 | 0.0 | 0.0 | 0.00 | 0.00 | 0.00 | 77 | 1017.8 |
| 20260905045706 | 26 | 175 | 0.0 | 0.0 | 0.00 | 0.00 | 0.00 | 76 | 1017.9 |
| 20260905045606 | 26 | 175 | 0.0 | 0.0 | 0.00 | 0.00 | 0.00 | 76 | 1017.8 |
| 20260905045506 | 26 | 175 | 0.0 | 0.0 | 0.00 | 0.00 | 0.00 | 76 | 1017.8 |
| 20260905045403 | 26 | 175 | 0.0 | 0.0 | 0.00 | 0.00 | 0.00 | 76 | 1017.8 |
| 20260905045259 | 26 | 175 | 0.0 | 0.0 | 0.00 | 0.00 | 0.00 | 76 | 1017.8 |
| 20260905045156 | 26 | 175 | 0.0 | 0.0 | 0.00 | 0.00 | 0.00 | 76 | 1017.9 |
| 20260905045057 | 25 | 175 | 0.0 | 0.0 | 0.00 | 0.00 | 0.00 | 76 | 1017.9 |
| 20260905044958 | 26 | 175 | 0.0 | 0.0 | 0.00 | 0.00 | 0.00 | 75 | 1017.8 |
| 20260905044856 | 26 | 175 | 0.0 | 0.0 | 0.00 | 0.00 | 0.00 | 74 | 1017.9 |
| 20260905044757 | 25 | 175 | 0.0 | 0.0 | 0.00 | 0.00 | 0.00 | 74 | 1017.9 |
| 20260905044654 | 25 | 175 | 0.0 | 0.0 | 0.00 | 0.00 | 0.00 | 74 | 1017.9 |
| 20260905044556 | 26 | 175 | 0.0 | 0.0 | 0.00 | 0.00 | 0.00 | 74 | 1017.8 |
| 20260905044453 | 26 | 175 | 0.0 | 0.0 | 0.00 | 0.00 | 0.00 | 74 | 1017.9 |
| 20260905044352 | 25 | 175 | 0.0 | 0.0 | 0.00 | 0.00 | 0.00 | 74 | 1017.9 |
| 20260905044248 | 25 | 175 | 0.0 | 0.0 | 0.00 | 0.00 | 0.00 | 74 | 1017.9 |
| 20260905044144 | 26 | 175 | 0.0 | 0.0 | 0.00 | 0.00 | 0.00 | 74 | 1017.9 |
| 20260905044044 | 26 | 175 | 0.0 | 0.0 | 0.00 | 0.00 | 0.00 | 74 | 1017.8 |
| 20260905043942 | 26 | 175 | 0.0 | 0.0 | 0.00 | 0.00 | 0.00 | 75 | 1017.8 |
| 20260905043840 | 26 | 175 | 0.0 | 0.0 | 0.00 | 0.00 | 0.00 | 75 | 1017.8 |
| 20260905043740 | 26 | 175 | 0.0 | 0.0 | 0.00 | 0.00 | 0.00 | 75 | 1017.9 |
| 20260905043641 | 26 | 175 | 0.0 | 0.0 | 0.00 | 0.00 | 0.00 | 74 | 1017.8 |
| 20260905043541 | 26 | 175 | 0.0 | 0.0 | 0.00 | 0.00 | 0.00 | 74 | 1017.8 |
| 20260905043440 | 26 | 175 | 0.0 | 0.0 | 0.00 | 0.00 | 0.00 | 74 | 1017.8 |
| 20260905043339 | 26 | 175 | 0.0 | 0.0 | 0.00 | 0.00 | 0.00 | 74 | 1017.8 |
| 20260905043239 | 26 | 175 | 0.0 | 0.0 | 0.00 | 0.00 | 0.00 | 74 | 1017.9 |
| 20260905043138 | 25 | 175 | 0.0 | 0.0 | 0.00 | 0.00 | 0.00 | 74 | 1017.8 |
| 20260905043040 | 26 | 175 | 0.0 | 0.0 | 0.00 | 0.00 | 0.00 | 73 | 1017.8 |
| 20260905042937 | 26 | 175 | 0.0 | 0.0 | 0.00 | 0.00 | 0.00 | 73 | 1017.8 |
| 20260905042836 | 26 | 175 | 0.0 | 0.0 | 0.00 | 0.00 | 0.00 | 73 | 1017.8 |
| 20260905042735 | 26 | 175 | 0.0 | 0.0 | 0.00 | 0.00 | 0.00 | 73 | 1017.9 |
| 20260905042632 | 26 | 175 | 0.0 | 0.0 | 0.00 | 0.00 | 0.00 | 73 | 1017.9 |
| 20260905042533 | 26 | 175 | 0.0 | 0.0 | 0.00 | 0.00 | 0.00 | 73 | 1017.9 |
| 20260905042430 | 26 | 175 | 0.0 | 0.0 | 0.00 | 0.00 | 0.00 | 73 | 1017.8 |
| 20260905042331 | 26 | 175 | 0.0 | 0.0 | 0.00 | 0.00 | 0.00 | 73 | 1017.8 |
| 20260905042229 | 26 | 175 | 0.0 | 0.0 | 0.00 | 0.00 | 0.00 | 72 | 1017.8 |
| 20260905042127 | 26 | 175 | 0.0 | 0.0 | 0.00 | 0.00 | 0.00 | 72 | 1017.8 |
| 20260905042026 | 26 | 175 | 0.0 | 0.0 | 0.00 | 0.00 | 0.00 | 72 | 1017.8 |
| 20260905041925 | 26 | 175 | 0.0 | 0.0 | 0.00 | 0.00 | 0.00 | 72 | 1017.8 |
| 20260905041824 | 26 | 175 | 0.0 | 0.0 | 0.00 | 0.00 | 0.00 | 72 | 1017.9 |
| 20260905041723 | 26 | 175 | 0.0 | 0.0 | 0.00 | 0.00 | 0.00 | 72 | 1017.8 |
| 20260905041620 | 26 | 175 | 0.0 | 0.0 | 0.00 | 0.00 | 0.00 | 72 | 1017.8 |
| 20260905041520 | 26 | 175 | 0.0 | 0.0 | 0.00 | 0.00 | 0.00 | 72 | 1017.8 |
| 20260905041419 | 26 | 175 | 0.0 | 0.0 | 0.00 | 0.00 | 0.00 | 72 | 1017.8 |
| 20260905041317 | 26 | 175 | 0.0 | 0.0 | 0.00 | 0.00 | 0.00 | 72 | 1017.9 |
| 20260905041217 | 26 | 175 | 0.0 | 0.0 | 0.00 | 0.00 | 0.00 | 72 | 1017.8 |
| 20260905041114 | 26 | 175 | 0.0 | 0.0 | 0.00 | 0.00 | 0.00 | 72 | 1017.8 |
| 20260905041015 | 26 | 175 | 0.0 | 0.0 | 0.00 | 0.00 | 0.00 | 72 | 1017.9 |
| 20260905040912 | 26 | 175 | 0.0 | 0.0 | 0.00 | 0.00 | 0.00 | 72 | 1017.9 |
| 20260905040814 | 26 | 175 | 0.0 | 0.0 | 0.00 | 0.00 | 0.00 | 71 | 1017.8 |
| 20260905040712 | 26 | 175 | 0.0 | 0.0 | 0.00 | 0.00 | 0.00 | 72 | 1017.9 |
| 20260905040613 | 26 | 177 | 0.0 | 0.0 | 0.00 | 0.00 | 0.00 | 71 | 1017.8 |
| 20260905040510 | 26 | 206 | 0.0 | 0.0 | 0.00 | 0.00 | 0.00 | 71 | 1017.8 |
| 20260905040410 | 26 | 263 | 0.0 | 0.0 | 0.00 | 0.00 | 0.00 | 71 | 1017.7 |
| 20260905040312 | 26 | 263 | 0.0 | 0.0 | 0.00 | 0.00 | 0.00 | 71 | 1017.7 |
| 20260905040210 | 26 | 263 | 0.0 | 0.0 | 0.00 | 0.00 | 0.00 | 71 | 1017.8 |
| 20260905040109 | 26 | 263 | 0.0 | 0.0 | 0.00 | 0.00 | 0.00 | 70 | 1017.8 |
| 20260905040009 | 26 | 263 | 0.0 | 0.0 | 0.00 | 0.00 | 0.00 | 70 | 1017.8 |
| 20260905035909 | 26 | 263 | 0.0 | 0.0 | 0.00 | 0.00 | 0.00 | 70 | 1017.7 |
| 20260905035809 | 26 | 263 | 0.0 | 0.0 | 0.00 | 0.00 | 0.00 | 70 | 1017.7 |
| 20260905035708 | 26 | 263 | 0.0 | 0.0 | 0.00 | 0.00 | 0.00 | 70 | 1017.8 |
| 20260905035608 | 26 | 263 | 0.0 | 0.0 | 0.00 | 0.00 | 0.00 | 70 | 1017.7 |
| 20260905035508 | 26 | 263 | 0.0 | 0.0 | 0.00 | 0.00 | 0.00 | 70 | 1017.6 |
| 20260905035409 | 26 | 263 | 0.0 | 0.0 | 0.00 | 0.00 | 0.00 | 70 | 1017.7 |
| 20260905035301 | 26 | 263 | 0.0 | 0.0 | 0.00 | 0.00 | 0.00 | 70 | 1017.7 |
| 20260905035200 | 26 | 263 | 0.0 | 0.0 | 0.00 | 0.00 | 0.00 | 69 | 1017.6 |
| 20260905035101 | 26 | 263 | 0.0 | 0.0 | 0.00 | 0.00 | 0.00 | 69 | 1017.6 |
| 20260905035001 | 26 | 263 | 0.0 | 0.0 | 0.00 | 0.00 | 0.00 | 69 | 1017.6 |
| 20260905034901 | 26 | 263 | 0.0 | 0.0 | 0.00 | 0.00 | 0.00 | 68 | 1017.6 |
| 20260905034802 | 26 | 263 | 0.0 | 0.0 | 0.00 | 0.00 | 0.00 | 68 | 1017.6 |
| 20260905034701 | 26 | 263 | 0.0 | 0.0 | 0.00 | 0.00 | 0.00 | 68 | 1017.5 |
| 20260905034600 | 26 | 263 | 0.0 | 0.0 | 0.00 | 0.00 | 0.00 | 68 | 1017.6 |
| 20260905034500 | 26 | 263 | 0.0 | 0.0 | 0.00 | 0.00 | 0.00 | 68 | 1017.6 |
| 20260905034400 | 26 | 263 | 0.0 | 0.0 | 0.00 | 0.00 | 0.00 | 68 | 1017.6 |
| 20260905034300 | 26 | 263 | 0.0 | 0.0 | 0.00 | 0.00 | 0.00 | 68 | 1017.6 |
| 20260905034200 | 26 | 263 | 0.0 | 0.0 | 0.00 | 0.00 | 0.00 | 68 | 1017.6 |
| 20260905034101 | 26 | 263 | 0.0 | 0.0 | 0.00 | 0.00 | 0.00 | 68 | 1017.6 |
| 20260905034002 | 26 | 263 | 0.0 | 0.0 | 0.00 | 0.00 | 0.00 | 67 | 1017.6 |
| 20260905033900 | 26 | 263 | 0.0 | 0.0 | 0.00 | 0.00 | 0.00 | 67 | 1017.6 |
| 20260905033802 | 26 | 263 | 0.0 | 0.0 | 0.00 | 0.00 | 0.00 | 67 | 1017.5 |
| 20260905033701 | 26 | 263 | 0.0 | 0.0 | 0.00 | 0.00 | 0.00 | 67 | 1017.6 |
| 20260905033602 | 26 | 263 | 0.0 | 0.0 | 0.00 | 0.00 | 0.00 | 67 | 1017.6 |
| 20260905033500 | 26 | 263 | 0.0 | 0.0 | 0.00 | 0.00 | 0.00 | 67 | 1017.5 |
| 20260905033402 | 26 | 263 | 0.0 | 0.0 | 0.00 | 0.00 | 0.00 | 67 | 1017.5 |
| 20260905033301 | 26 | 263 | 0.0 | 0.0 | 0.00 | 0.00 | 0.00 | 67 | 1017.5 |
| 20260905033200 | 26 | 263 | 0.0 | 0.0 | 0.00 | 0.00 | 0.00 | 67 | 1017.5 |
| 20260905033101 | 26 | 263 | 0.0 | 0.0 | 0.00 | 0.00 | 0.00 | 67 | 1017.5 |
| 20260905033000 | 26 | 263 | 0.0 | 0.0 | 0.00 | 0.00 | 0.00 | 67 | 1017.5 |
| 20260905032901 | 26 | 263 | 0.0 | 0.0 | 0.00 | 0.00 | 0.00 | 67 | 1017.5 |
| 20260905032801 | 26 | 263 | 0.0 | 0.0 | 0.00 | 0.00 | 0.00 | 67 | 1017.4 |
| 20260905032701 | 26 | 263 | 0.0 | 0.0 | 0.00 | 0.00 | 0.00 | 68 | 1017.4 |
| 20260905032601 | 26 | 263 | 0.0 | 0.0 | 0.00 | 0.00 | 0.00 | 68 | 1017.5 |
| 20260905032500 | 26 | 263 | 0.0 | 0.0 | 0.00 | 0.00 | 0.00 | 68 | 1017.4 |
| 20260905032400 | 26 | 263 | 0.0 | 0.0 | 0.00 | 0.00 | 0.00 | 68 | 1017.4 |
| 20260905032301 | 26 | 263 | 0.0 | 0.0 | 0.00 | 0.00 | 0.00 | 68 | 1017.5 |
| 20260905032201 | 26 | 263 | 0.0 | 0.0 | 0.00 | 0.00 | 0.00 | 68 | 1017.4 |
| 20260905032101 | 26 | 263 | 0.0 | 0.0 | 0.00 | 0.00 | 0.00 | 68 | 1017.4 |
| 20260905031958 | 26 | 263 | 0.0 | 0.0 | 0.00 | 0.00 | 0.00 | 68 | 1017.4 |
| 20260905031857 | 26 | 263 | 0.0 | 0.0 | 0.00 | 0.00 | 0.00 | 67 | 1017.4 |
| 20260905031758 | 26 | 263 | 0.0 | 0.0 | 0.00 | 0.00 | 0.00 | 67 | 1017.3 |
| 20260905031656 | 26 | 263 | 0.0 | 0.0 | 0.00 | 0.00 | 0.00 | 67 | 1017.3 |
| 20260905031557 | 26 | 263 | 0.0 | 0.0 | 0.00 | 0.00 | 0.00 | 67 | 1017.3 |
| 20260905031457 | 26 | 263 | 0.0 | 0.0 | 0.00 | 0.00 | 0.00 | 67 | 1017.3 |
| 20260905031357 | 26 | 263 | 0.0 | 0.0 | 0.00 | 0.00 | 0.00 | 67 | 1017.3 |
| 20260905031256 | 26 | 263 | 0.0 | 0.0 | 0.00 | 0.00 | 0.00 | 68 | 1017.4 |
| 20260905031157 | 26 | 263 | 0.0 | 0.0 | 0.00 | 0.00 | 0.00 | 68 | 1017.4 |
| 20260905031056 | 26 | 263 | 0.0 | 0.0 | 0.00 | 0.00 | 0.00 | 67 | 1017.4 |
| 20260905030956 | 26 | 263 | 0.0 | 0.0 | 0.00 | 0.00 | 0.00 | 67 | 1017.3 |
| 20260905030857 | 26 | 263 | 0.0 | 0.0 | 0.00 | 0.00 | 0.00 | 67 | 1017.4 |
| 20260905030756 | 26 | 263 | 0.0 | 0.0 | 0.00 | 0.00 | 0.00 | 67 | 1017.4 |
| 20260905030658 | 26 | 263 | 0.0 | 0.0 | 0.00 | 0.00 | 0.00 | 67 | 1017.4 |
| 20260905030558 | 26 | 263 | 0.0 | 0.0 | 0.00 | 0.00 | 0.00 | 67 | 1017.4 |
| 20260905030456 | 26 | 263 | 0.0 | 0.0 | 0.00 | 0.00 | 0.00 | 68 | 1017.4 |
| 20260905030358 | 26 | 263 | 0.0 | 0.0 | 0.00 | 0.00 | 0.00 | 67 | 1017.4 |
| 20260905030258 | 26 | 263 | 0.0 | 0.0 | 0.00 | 0.00 | 0.00 | 67 | 1017.3 |
| 20260905030157 | 26 | 263 | 0.0 | 0.0 | 0.00 | 0.00 | 0.00 | 67 | 1017.3 |
| 20260905030058 | 26 | 263 | 0.0 | 0.0 | 0.00 | 0.00 | 0.00 | 67 | 1017.4 |
| 20260905025956 | 26 | 263 | 0.0 | 0.0 | 0.00 | 0.00 | 0.00 | 67 | 1017.3 |
| 20260905025858 | 26 | 263 | 0.0 | 0.0 | 0.00 | 0.00 | 0.00 | 67 | 1017.2 |
| 20260905025758 | 26 | 263 | 0.0 | 0.0 | 0.00 | 0.00 | 0.00 | 67 | 1017.2 |
| 20260905025657 | 26 | 263 | 0.0 | 0.0 | 0.00 | 0.00 | 0.00 | 67 | 1017.1 |
| 20260905025557 | 26 | 263 | 0.0 | 0.0 | 0.00 | 0.00 | 0.00 | 67 | 1017.2 |
| 20260905025457 | 26 | 263 | 0.0 | 0.0 | 0.00 | 0.00 | 0.00 | 66 | 1017.3 |
| 20260905025353 | 26 | 263 | 0.0 | 0.0 | 0.00 | 0.00 | 0.00 | 66 | 1017.2 |
| 20260905025254 | 26 | 263 | 0.0 | 0.0 | 0.00 | 0.00 | 0.00 | 66 | 1017.3 |
| 20260905025152 | 26 | 263 | 0.0 | 0.0 | 0.00 | 0.00 | 0.00 | 66 | 1017.2 |
| 20260905025054 | 26 | 263 | 0.0 | 0.0 | 0.00 | 0.00 | 0.00 | 66 | 1017.2 |
| 20260905024952 | 26 | 263 | 0.0 | 0.0 | 0.00 | 0.00 | 0.00 | 66 | 1017.3 |
| 20260905024852 | 26 | 263 | 0.0 | 0.0 | 0.00 | 0.00 | 0.00 | 65 | 1017.3 |
| 20260905024751 | 26 | 263 | 0.0 | 0.0 | 0.00 | 0.00 | 0.00 | 65 | 1017.3 |
| 20260905024651 | 26 | 263 | 0.0 | 0.0 | 0.00 | 0.00 | 0.00 | 65 | 1017.3 |
| 20260905024552 | 26 | 263 | 0.0 | 0.0 | 0.00 | 0.00 | 0.00 | 65 | 1017.3 |
| 20260905024451 | 26 | 263 | 0.0 | 0.0 | 0.00 | 0.00 | 0.00 | 65 | 1017.3 |
| 20260905024351 | 26 | 263 | 0.0 | 0.0 | 0.00 | 0.00 | 0.00 | 65 | 1017.2 |
| 20260905024251 | 26 | 263 | 0.0 | 0.0 | 0.00 | 0.00 | 0.00 | 65 | 1017.2 |
| 20260905024148 | 26 | 263 | 0.0 | 0.0 | 0.00 | 0.00 | 0.00 | 65 | 1017.2 |
| 20260905024047 | 26 | 263 | 0.0 | 0.0 | 0.00 | 0.00 | 0.00 | 64 | 1017.1 |
| 20260905023948 | 26 | 263 | 0.0 | 0.0 | 0.00 | 0.00 | 0.00 | 65 | 1017.2 |
| 20260905023846 | 26 | 263 | 0.0 | 0.0 | 0.00 | 0.00 | 0.00 | 65 | 1017.1 |
| 20260905023743 | 26 | 263 | 0.0 | 0.0 | 0.00 | 0.00 | 0.00 | 65 | 1017.1 |
| 20260905023643 | 26 | 263 | 0.0 | 0.0 | 0.00 | 0.00 | 0.00 | 65 | 1017.1 |
| 20260905023541 | 26 | 263 | 0.0 | 0.0 | 0.00 | 0.00 | 0.00 | 65 | 1017.1 |
| 20260905023438 | 26 | 263 | 0.0 | 0.0 | 0.00 | 0.00 | 0.00 | 65 | 1017.1 |
| 20260905023338 | 26 | 263 | 0.0 | 0.0 | 0.00 | 0.00 | 0.00 | 65 | 1017.1 |
| 20260905023240 | 26 | 263 | 0.0 | 0.0 | 0.00 | 0.00 | 0.00 | 65 | 1017.0 |
| 20260905023136 | 26 | 263 | 0.0 | 0.0 | 0.00 | 0.00 | 0.00 | 65 | 1017.1 |
| 20260905023036 | 26 | 263 | 0.0 | 0.0 | 0.00 | 0.00 | 0.00 | 65 | 1017.0 |
| 20260905022934 | 26 | 263 | 0.0 | 0.0 | 0.00 | 0.00 | 0.00 | 65 | 1017.0 |
| 20260905022834 | 26 | 263 | 0.0 | 0.0 | 0.00 | 0.00 | 0.00 | 64 | 1017.0 |
| 20260905022733 | 26 | 263 | 0.0 | 0.0 | 0.00 | 0.00 | 0.00 | 65 | 1017.0 |
| 20260905022634 | 26 | 263 | 0.0 | 0.0 | 0.00 | 0.00 | 0.00 | 64 | 1017.0 |
| 20260905022533 | 26 | 263 | 0.0 | 0.0 | 0.00 | 0.00 | 0.00 | 65 | 1017.0 |
| 20260905022431 | 26 | 263 | 0.0 | 0.0 | 0.00 | 0.00 | 0.00 | 65 | 1017.0 |
| 20260905022330 | 26 | 263 | 0.0 | 0.0 | 0.00 | 0.00 | 0.00 | 65 | 1017.0 |
| 20260905022230 | 26 | 263 | 0.0 | 0.0 | 0.00 | 0.00 | 0.00 | 65 | 1017.0 |
| 20260905022130 | 26 | 263 | 0.0 | 0.0 | 0.00 | 0.00 | 0.00 | 65 | 1017.0 |
| 20260905022026 | 26 | 263 | 0.0 | 0.0 | 0.00 | 0.00 | 0.00 | 65 | 1017.0 |
| 20260905021927 | 26 | 263 | 0.0 | 0.0 | 0.00 | 0.00 | 0.00 | 65 | 1017.0 |
| 20260905021824 | 26 | 263 | 0.0 | 0.0 | 0.00 | 0.00 | 0.00 | 65 | 1017.0 |
| 20260905021726 | 26 | 263 | 0.0 | 0.0 | 0.00 | 0.00 | 0.00 | 66 | 1017.1 |
| 20260905021622 | 26 | 263 | 0.0 | 0.0 | 0.00 | 0.00 | 0.00 | 65 | 1017.0 |
| 20260905021525 | 26 | 263 | 0.0 | 0.0 | 0.00 | 0.00 | 0.00 | 65 | 1017.0 |
| 20260905021421 | 26 | 263 | 0.0 | 0.0 | 0.00 | 0.00 | 0.00 | 65 | 1016.9 |
| 20260905021321 | 26 | 263 | 0.0 | 0.0 | 0.00 | 0.00 | 0.00 | 65 | 1016.9 |